GEFSSGP_con_cape1000_000.txt.gz
Probability
0 0 0 0 0 0 0 0 0 0 0 3 3 13 26 10 0 65 100 100 97 61 90 100 100 100 100 100 100 100 100 100 100 100 100 100 100 100 100 100 100 100 100 100 100 100 100 100 100
0 0 0 0 0 0 0 0 0 0 6 23 42 13 6 100 100 100 100 100 100 97 94 100 100 100 100 100 100 100 100 100 100 100 100 100 100 100 100 100 100 100 100 100 100 100 100 100 100
0 0 0 0 0 0 0 0 0 0 16 6 3 0 19 100 100 100 100 100 100 100 97 100 100 100 100 100 100 100 100 100 100 100 100 100 100 100 100 100 100 100 100 100 100 100 100 100 97
0 0 0 0 0 0 0 0 0 26 16 0 0 48 100 100 100 100 100 100 100 97 94 100 100 100 100 100 100 100 100 100 100 100 100 100 100 100 100 100 100 100 100 100 100 100 100 97 71
0 0 0 0 0 0 0 0 6 32 0 0 3 52 100 100 100 100 100 100 97 84 81 100 100 100 100 100 100 100 100 100 100 100 100 97 100 100 100 100 100 100 100 100 100 100 81 52 29
0 0 0 0 0 0 0 0 32 39 45 29 19 26 100 100 100 100 100 100 100 97 97 100 100 100 100 100 100 100 100 100 100 100 100 100 100 100 100 100 100 100 100 100 90 35 6 10 0
0 0 0 0 0 0 0 0 13 39 61 61 32 52 100 100 100 100 100 100 100 100 97 100 100 100 100 100 100 100 100 100 100 100 100 100 100 100 100 100 100 100 100 100 42 10 6 3 3
0 0 0 0 0 0 0 0 0 10 48 42 32 29 52 100 100 100 100 100 100 100 100 100 100 100 100 100 100 100 100 100 100 100 100 100 100 100 100 100 100 100 100 100 26 0 0 0 0
0 0 0 0 0 0 0 0 0 0 81 84 71 23 77 100 100 100 100 100 100 100 100 100 100 100 100 100 100 100 100 100 100 100 100 100 100 100 100 100 100 100 100 65 0 0 0 0 0
0 0 0 0 0 0 0 0 0 6 77 84 84 87 100 100 100 100 100 100 100 100 97 100 100 100 100 100 100 100 100 100 100 100 100 100 100 100 100 100 100 100 100 81 3 3 0 0 0
0 0 0 0 0 0 0 0 0 6 77 90 100 100 100 100 100 100 94 97 87 48 32 29 100 100 100 100 100 100 100 100 100 100 100 100 100 100 100 100 100 100 100 10 0 0 0 0 0
0 0 0 0 0 0 0 0 0 0 6 68 100 100 100 100 100 100 87 90 10 0 0 0 100 100 100 100 100 100 97 100 100 100 100 100 100 100 87 74 13 0 0 0 0 0 0 0 0
0 0 0 0 0 0 0 0 0 0 0 48 97 100 100 100 100 100 84 81 19 0 0 0 100 100 100 100 100 84 94 94 87 100 100 100 100 94 81 61 29 13 3 3 0 0 0 0 0
0 0 0 0 0 0 0 0 0 0 35 90 100 100 100 100 100 100 90 58 26 19 10 0 84 100 100 100 100 100 74 90 87 74 97 100 100 100 100 90 94 74 13 3 3 0 0 0 0
0 0 0 0 0 0 0 0 0 19 84 90 100 100 100 100 100 100 74 35 26 35 26 26 6 100 100 100 100 100 97 94 81 90 100 100 100 100 100 100 77 19 3 3 0 0 0 0 0
0 0 0 0 0 0 0 0 0 10 74 87 100 100 100 100 100 97 77 23 13 13 23 19 6 87 100 100 100 100 100 100 100 87 84 87 90 94 65 26 16 0 0 0 0 0 0 0 0
0 0 0 0 0 0 0 0 0 3 32 48 87 100 100 100 100 97 71 13 6 13 16 26 35 97 100 100 100 100 81 68 48 32 13 0 0 0 0 0 0 0 0 0 0 0 0 0 0
0 0 0 0 0 0 0 0 0 0 10 39 87 100 100 100 100 97 55 16 10 10 45 87 90 100 100 100 94 74 29 6 0 0 0 0 0 0 0 0 0 0 0 0 0 0 0 0 0
0 0 0 0 0 0 0 0 0 0 6 23 84 100 100 100 100 97 39 16 10 16 71 97 97 97 100 97 74 32 0 0 0 0 0 0 0 0 0 0 0 0 0 0 0 0 0 0 0
0 0 0 0 0 0 0 0 0 0 0 13 55 94 100 100 97 94 58 23 32 35 71 97 97 97 97 94 39 0 0 0 0 0 0 0 0 0 0 0 0 0 0 0 0 0 0 0 0
0 0 0 0 0 0 0 0 0 0 0 0 13 84 100 100 100 74 68 39 26 32 68 90 97 68 55 16 0 0 0 0 0 0 0 0 0 0 0 0 0 0 0 0 0 0 0 0 0
0 0 0 0 0 0 0 0 0 0 0 0 6 29 94 100 94 58 26 19 19 16 39 45 32 16 10 0 0 0 0 0 0 0 0 0 0 0 0 0 0 0 0 0 0 0 0 0 0
0 0 0 0 0 0 0 0 0 0 0 0 10 32 71 100 97 32 16 3 0 10 16 16 10 3 0 0 0 0 0 0 0 0 0 0 0 0 0 0 0 0 0 0 0 0 0 0 0
0 0 0 0 0 0 0 0 0 0 0 0 0 81 81 100 84 10 0 0 0 3 6 6 0 0 0 0 0 0 0 0 0 0 0 0 0 0 0 0 0 0 0 0 0 0 0 0 0
0 0 0 0 0 0 0 0 0 0 0 0 13 90 90 90 0 0 0 0 0 0 0 0 0 0 0 0 0 0 0 0 0 0 0 0 0 0 0 0 0 0 0 0 0 0 0 0 0
0 0 0 0 0 0 0 0 0 0 0 0 42 100 81 0 0 0 0 0 0 0 0 0 0 0 0 0 0 0 0 0 0 0 0 0 0 0 0 0 0 0 0 0 0 0 0 0 0
0 0 0 0 0 0 0 0 0 0 0 0 71 97 0 0 0 0 0 0 0 0 0 0 0 0 0 0 0 0 0 0 0 0 0 0 0 0 0 0 0 0 0 0 0 0 0 0 0
0 0 0 0 0 0 0 0 0 0 0 6 100 39 0 0 0 0 0 0 0 0 0 0 0 0 0 0 0 0 0 0 0 0 0 0 0 0 0 0 0 0 0 0 0 0 0 0 0
0 0 0 0 0 0 0 0 0 0 0 58 100 16 0 0 0 0 0 0 0 0 0 0 0 0 0 0 0 0 0 0 0 0 0 0 0 0 0 0 0 0 0 0 0 0 0 0 0
0 0 0 0 0 0 0 0 0 0 0 3 97 0 0 0 0 0 0 0 0 0 0 0 0 0 0 0 0 0 0 0 0 0 0 0 0 0 0 0 0 0 0 0 0 0 0 0 0

GEFSSGP_con_cape1000_006.txt.gz
Probability
0 0 0 0 0 0 0 0 0 0 0 0 0 0 0 0 65 100 100 94 100 94 100 100 100 100 100 100 100 100 100 100 100 100 100 100 100 100 100 100 100 94 81 65 94 100 100 97 97
0 0 0 0 0 0 0 0 0 0 0 0 0 0 0 0 90 100 100 97 100 100 100 100 100 100 100 100 100 100 100 100 100 100 100 100 100 100 100 100 100 90 97 100 100 100 100 100 87
0 0 0 0 0 0 0 0 0 0 0 0 0 0 0 0 94 100 100 94 100 100 100 100 100 100 100 100 100 100 100 100 100 100 100 100 100 100 100 100 94 100 100 100 100 100 100 94 48
0 0 0 0 0 0 0 0 0 0 0 0 0 0 0 13 94 100 100 94 100 100 100 100 100 100 100 100 100 100 100 100 100 100 100 100 100 100 100 90 94 100 100 100 100 100 90 55 32
0 0 0 0 0 0 0 0 0 0 0 0 0 0 35 68 90 94 100 97 97 100 100 100 100 100 100 100 100 100 100 100 100 100 100 97 100 94 97 100 100 100 100 100 97 81 52 19 3
0 0 0 0 0 0 0 0 0 0 0 0 0 0 58 68 77 71 81 97 52 94 100 100 100 100 100 100 100 100 100 100 100 100 100 97 97 100 97 100 100 100 100 97 65 16 6 0 0
0 0 0 0 0 0 0 0 0 0 0 0 0 3 68 77 81 77 87 84 68 100 100 100 100 100 100 100 100 100 100 100 100 100 100 100 100 100 100 100 100 100 97 65 16 0 0 0 0
0 0 0 0 0 0 0 0 0 0 0 0 0 0 68 100 94 87 97 94 90 100 100 100 100 100 100 100 100 100 100 100 100 100 100 100 100 100 100 100 100 100 97 48 3 0 0 0 0
0 0 0 0 0 0 0 0 0 0 0 0 0 0 68 100 94 100 100 100 100 100 100 100 100 100 100 100 100 100 100 100 100 100 100 100 100 100 100 100 100 100 100 45 3 0 0 0 0
0 0 0 0 0 0 0 0 0 0 0 0 6 29 74 87 94 87 100 100 100 100 100 100 100 100 100 100 100 100 100 100 100 100 100 100 100 100 100 100 100 100 100 55 10 3 0 0 0
0 0 0 0 0 0 0 0 0 0 0 3 13 39 61 77 84 71 87 100 100 100 100 100 100 100 100 100 100 100 100 100 100 100 100 100 100 100 100 100 100 100 100 58 23 6 0 0 0
0 0 0 0 0 0 0 0 0 0 0 0 3 23 39 58 45 26 35 87 97 97 97 94 100 100 100 100 100 100 100 100 100 100 100 100 100 100 100 100 100 100 97 68 0 13 0 0 0
0 0 0 0 0 0 0 0 0 0 0 0 3 26 52 52 29 13 26 65 81 68 52 71 97 100 100 100 100 97 100 100 100 100 100 100 100 100 100 94 100 97 65 29 58 19 26 3 0
0 0 0 0 0 0 0 0 0 0 0 0 3 35 65 58 13 16 45 71 55 45 26 45 100 100 100 100 100 100 100 100 100 100 100 100 100 100 100 97 97 87 81 74 74 42 19 29 35
0 0 0 0 0 0 0 0 0 0 0 0 3 29 71 68 19 29 81 90 84 87 87 90 100 100 100 100 100 100 100 90 100 100 100 100 100 100 100 97 90 90 87 48 55 10 16 0 0
0 0 0 0 0 0 0 0 0 0 0 0 3 19 58 84 29 68 100 97 97 97 100 94 90 100 100 100 100 100 97 100 100 100 97 97 97 87 94 77 58 68 26 10 10 0 0 0 0
0 0 0 0 0 0 0 0 0 0 0 0 3 10 26 81 71 90 97 97 100 100 100 100 100 100 100 100 100 100 100 94 87 74 58 39 23 13 32 23 23 6 3 0 0 0 0 0 0
0 0 0 0 0 0 0 0 0 0 0 0 0 6 16 58 97 100 94 94 94 97 100 100 100 100 100 100 100 97 87 81 45 29 32 16 0 0 3 3 0 0 0 0 0 0 0 0 0
0 0 0 0 0 0 0 0 0 0 0 0 0 3 13 61 97 94 94 90 90 97 100 100 100 100 100 100 97 90 74 35 13 3 3 0 0 0 0 0 0 0 0 0 0 0 0 0 0
0 0 0 0 0 0 0 0 0 0 0 0 0 3 10 61 94 90 87 87 87 97 100 100 100 100 100 100 100 94 65 23 0 0 0 0 0 0 0 0 0 0 0 0 0 0 0 0 0
0 0 0 0 0 0 0 0 0 0 0 0 0 0 3 29 94 94 94 90 90 100 100 100 100 100 100 100 81 45 10 0 0 0 0 0 0 0 0 0 0 0 0 0 0 0 0 0 0
0 0 0 0 0 0 0 0 0 0 0 0 0 0 0 6 71 97 97 94 94 94 100 100 100 100 100 94 52 26 6 0 0 0 0 0 0 0 0 0 0 0 0 0 0 0 0 0 0
0 0 0 0 0 0 0 0 0 0 0 0 0 0 0 6 45 97 100 94 97 97 100 100 97 97 97 87 77 58 10 0 0 0 0 0 0 0 0 0 0 0 0 0 0 0 0 0 0
0 0 0 0 0 0 0 0 0 0 0 0 0 0 3 6 77 100 100 94 84 90 90 87 71 71 65 45 16 10 0 0 0 0 0 0 0 0 0 0 0 0 0 0 0 0 0 0 0
0 0 0 0 0 0 0 0 0 0 0 0 0 19 23 61 97 100 97 74 55 61 58 39 19 6 0 0 0 0 0 0 0 0 0 0 0 0 0 0 0 0 0 0 0 0 0 0 0
0 0 0 0 0 0 0 0 0 0 0 0 19 74 94 100 97 87 65 42 32 35 26 10 0 0 0 0 0 0 0 0 0 0 0 0 0 0 0 0 0 0 0 0 0 0 0 0 0
0 0 0 0 0 0 0 0 0 0 0 3 32 90 97 71 39 16 13 10 6 0 0 0 0 0 0 0 0 0 0 0 0 0 0 0 0 0 0 0 0 0 0 0 0 0 0 0 0
0 0 0 0 0 0 0 0 0 0 0 0 55 94 32 19 6 3 0 0 0 0 0 0 0 0 0 0 0 0 0 0 0 0 0 0 0 0 0 0 0 0 0 0 0 0 0 0 0
0 0 0 0 0 0 0 0 0 0 0 13 71 71 13 10 0 0 0 0 0 0 0 0 0 0 0 0 0 0 0 0 0 0 0 0 0 0 0 0 0 0 0 0 0 0 0 0 0
0 0 0 0 0 0 0 0 0 0 0 19 42 48 16 0 0 0 0 0 0 0 0 0 0 0 0 0 0 0 0 0 0 0 0 0 0 0 0 0 0 0 0 0 0 0 0 0 0

GEFSSGP_con_cape1000_012.txt.gz
Probability
0 0 0 0 0 0 0 0 0 0 0 0 0 45 81 97 45 10 6 3 23 100 100 100 100 100 100 100 100 100 100 100 100 100 100 100 100 100 100 100 100 100 100 100 100 100 100 97 68
0 0 0 0 0 0 0 0 0 0 0 0 48 90 100 100 87 35 3 6 39 100 100 100 100 100 100 100 100 100 100 100 100 100 100 100 100 100 100 100 100 100 100 100 100 100 100 90 52
0 0 0 0 0 0 0 0 0 0 0 0 0 26 100 100 97 68 29 10 19 84 100 100 100 100 100 100 100 100 100 100 100 100 100 100 100 100 100 100 100 100 100 100 100 100 97 81 42
0 0 0 0 0 0 0 0 0 0 0 0 13 45 100 100 100 94 32 6 13 74 100 100 100 100 100 100 100 100 100 100 100 100 100 100 100 100 100 100 100 100 100 100 100 100 90 61 29
0 0 0 0 0 0 0 0 0 0 0 16 55 97 100 100 100 90 61 29 23 58 100 100 100 100 100 100 100 100 100 100 100 100 100 100 100 100 100 100 100 100 100 100 100 97 87 55 16
0 0 0 0 0 0 0 0 0 0 0 26 68 84 97 100 100 100 94 84 71 90 100 100 100 100 100 100 100 100 100 100 100 100 100 100 100 100 100 100 100 100 100 100 97 84 58 35 10
0 0 0 0 0 0 0 0 0 0 0 6 42 58 84 97 97 100 100 97 97 100 100 100 100 100 100 100 100 100 100 100 100 100 100 100 100 100 100 100 100 100 100 97 71 42 32 23 13
0 0 0 0 0 0 0 0 0 0 0 3 35 55 58 68 87 94 100 100 100 100 100 100 100 100 100 100 100 100 100 100 100 100 100 100 100 100 100 100 100 100 100 90 81 61 42 26 10
0 0 0 0 0 0 0 0 0 0 0 3 23 42 55 61 68 81 97 100 100 100 100 100 100 100 100 100 100 100 100 100 100 100 100 100 100 100 100 100 100 100 100 100 87 68 29 16 6
0 0 0 0 0 0 0 0 0 0 10 26 52 61 71 61 52 77 97 100 100 97 100 100 100 100 100 100 100 100 100 100 100 97 100 74 23 35 94 100 100 100 100 100 74 48 19 3 0
0 0 0 0 0 0 0 0 0 0 10 32 61 65 71 74 65 81 100 100 100 97 100 100 100 100 100 100 100 100 100 100 87 55 26 13 35 42 52 71 100 100 100 77 39 26 0 0 0
0 0 0 0 0 0 0 0 0 0 3 42 45 52 52 71 74 77 90 94 94 100 100 100 100 100 100 100 100 100 100 90 77 74 26 6 32 39 48 13 48 58 61 23 3 0 0 0 0
0 0 0 0 0 0 0 0 0 0 13 32 35 35 42 58 71 77 84 94 97 94 100 100 100 97 97 94 100 100 97 87 81 81 74 32 35 32 55 26 13 10 10 3 0 0 0 0 0
0 0 0 0 0 0 0 0 0 0 16 29 29 26 26 39 65 71 87 97 97 94 97 100 100 97 94 97 97 100 100 94 94 90 90 52 23 10 26 10 0 0 0 0 0 0 0 0 0
0 0 0 0 0 0 0 0 0 0 6 16 16 16 19 32 48 58 84 84 87 84 87 100 100 100 90 81 90 97 97 97 90 74 39 16 3 0 0 0 0 0 0 0 0 0 0 0 0
0 0 0 0 0 0 0 0 0 0 0 13 10 16 16 26 42 45 65 81 65 61 77 97 100 87 58 55 48 71 90 90 68 35 16 3 0 0 0 0 0 0 0 0 0 0 0 0 0
0 0 0 0 0 0 0 0 0 0 0 3 10 13 13 13 13 23 55 65 58 39 74 87 100 71 32 10 10 26 32 35 3 0 0 0 0 0 0 0 0 0 0 0 0 0 0 0 0
0 0 0 0 0 0 0 0 0 0 0 3 6 13 13 13 10 13 35 42 13 32 74 81 94 74 45 23 10 6 3 0 0 0 0 0 0 0 0 0 0 0 0 0 0 0 0 0 0
0 0 0 0 0 0 0 0 0 0 0 0 10 13 16 13 6 0 6 13 10 19 55 84 97 90 77 52 13 3 0 0 0 0 0 0 0 0 0 0 0 0 0 0 0 0 0 0 0
0 0 0 0 0 0 0 0 0 0 0 0 3 6 10 3 13 23 16 19 23 19 42 81 100 90 81 45 6 0 0 0 0 0 0 0 0 0 0 0 0 0 0 0 0 0 0 0 0
0 0 0 0 0 0 0 0 0 0 0 0 3 3 6 19 29 42 42 42 35 29 55 84 100 97 81 19 0 0 0 0 0 0 0 0 0 0 0 0 0 0 0 0 0 0 0 0 0
0 0 0 0 0 0 0 0 0 0 0 0 0 3 10 52 52 55 58 48 42 42 68 94 94 90 32 0 0 0 0 0 0 0 0 0 0 0 0 0 0 0 0 0 0 0 0 0 0
0 0 0 0 0 0 0 0 0 0 0 0 0 0 6 45 71 77 65 55 52 74 84 90 77 29 0 0 0 0 0 0 0 0 0 0 0 0 0 0 0 0 0 0 0 0 0 0 0
0 0 0 0 0 0 0 0 0 0 0 0 6 10 0 23 74 61 58 65 71 74 61 35 6 3 0 0 0 0 0 0 0 0 0 0 0 0 0 0 0 0 0 0 0 0 0 0 0
0 0 0 0 0 0 0 0 0 0 0 6 32 42 23 52 65 55 71 81 77 39 6 0 0 0 0 0 0 0 0 0 0 0 0 0 0 0 0 0 0 0 0 0 0 0 0 0 0
0 0 0 0 0 0 0 0 0 26 52 61 65 77 68 71 68 65 71 74 32 3 0 0 0 0 0 0 0 0 0 0 0 0 0 0 0 0 0 0 0 0 0 0 0 0 0 0 0
0 0 0 0 0 0 0 0 6 55 84 94 90 77 71 68 52 42 39 16 3 0 0 0 0 0 0 0 0 0 0 0 0 0 0 0 0 0 0 0 0 0 0 0 0 0 0 0 0
0 0 0 0 0 0 0 0 0 35 74 77 71 58 35 23 16 13 6 0 0 0 0 0 0 0 0 0 0 0 0 0 0 0 0 0 0 0 0 0 0 0 0 0 0 0 0 0 0
0 0 0 0 0 0 0 0 16 19 52 52 32 19 10 6 0 0 0 0 0 0 0 0 0 0 0 0 0 0 0 0 0 0 0 0 0 0 0 0 0 0 0 0 0 0 0 0 0
0 0 0 0 0 0 0 0 10 16 26 16 10 6 3 0 0 0 0 0 0 0 0 0 0 0 0 0 0 0 0 0 0 0 0 0 0 0 0 0 0 0 0 0 0 0 0 0 0

GEFSSGP_con_cape1000_018.txt.gz
Probability
0 0 0 0 0 0 0 0 0 0 0 0 0 0 3 10 0 0 0 3 16 81 100 100 100 100 100 100 100 100 100 100 100 100 100 100 100 100 100 100 100 100 100 100 100 100 100 100 90
0 0 0 0 0 0 0 0 0 0 0 23 65 87 84 77 42 3 0 19 68 97 100 100 100 100 100 100 100 100 100 100 100 100 100 100 100 100 100 100 100 100 100 100 100 100 90 87 74
0 0 0 0 0 0 0 0 0 0 6 19 68 100 97 77 45 3 3 58 94 100 100 100 100 100 100 100 100 100 100 100 100 100 100 100 100 100 100 100 100 100 100 100 100 100 90 74 35
0 0 0 0 0 0 0 0 0 0 0 3 77 100 100 77 26 6 13 84 100 100 100 100 100 100 100 100 100 100 100 100 100 100 100 100 100 100 100 100 100 100 100 100 100 97 90 65 19
0 0 0 0 0 0 0 0 0 0 0 32 94 100 100 90 58 13 32 84 100 100 100 100 100 100 100 100 100 100 100 100 100 100 100 100 100 100 100 100 100 100 100 100 100 90 77 45 16
0 0 0 0 0 0 0 0 0 0 6 52 100 100 100 94 32 13 6 35 90 100 100 100 100 100 100 100 100 100 100 100 100 100 100 100 100 100 100 100 100 100 100 100 97 90 61 35 13
0 0 0 0 0 0 0 0 0 0 3 58 90 100 100 81 26 10 6 10 52 100 100 100 100 100 100 100 100 100 100 100 100 100 100 100 100 100 100 100 100 100 100 100 97 68 39 29 10
0 0 0 0 0 0 0 0 0 0 0 16 84 97 100 97 39 16 10 13 55 100 100 100 100 100 100 100 100 100 100 100 100 100 100 100 100 100 100 100 100 100 100 100 94 68 35 32 13
0 0 0 0 0 0 0 0 0 0 0 26 45 65 94 94 52 42 35 45 71 100 100 100 100 100 100 100 100 100 100 100 100 100 100 100 100 100 100 100 100 100 100 94 94 81 61 29 3
0 0 0 0 0 0 0 0 0 3 6 23 32 65 100 94 77 77 74 71 84 100 100 100 100 100 100 100 100 100 100 100 100 100 100 100 97 97 100 100 100 100 100 97 94 74 48 3 0
0 0 0 0 0 0 0 0 0 3 3 6 32 81 100 97 94 94 90 84 81 94 97 100 100 100 100 100 100 100 100 100 100 100 100 65 3 6 90 65 100 100 100 94 68 29 0 0 0
0 0 0 0 0 0 0 0 0 0 0 0 35 84 97 100 100 100 97 97 87 87 90 97 100 100 100 97 100 100 100 87 65 45 32 6 0 0 3 0 19 35 42 42 6 0 0 0 0
0 0 0 0 0 0 0 0 0 0 0 3 48 81 97 100 100 100 100 100 90 94 81 94 100 100 100 97 100 97 84 74 45 16 6 0 0 0 0 0 0 0 0 0 0 0 0 0 0
0 0 0 0 0 0 0 0 0 0 0 13 55 81 87 97 97 100 100 100 97 97 71 74 94 97 97 97 97 94 77 55 29 16 3 0 0 0 0 3 0 0 0 0 0 0 0 0 0
0 0 0 0 0 0 0 0 0 0 0 23 52 77 77 90 94 94 100 100 100 77 55 58 81 90 97 90 87 84 74 39 29 10 3 6 0 0 0 0 0 0 0 0 0 0 0 0 0
0 0 0 0 0 0 0 0 0 0 6 23 35 61 71 58 74 87 94 94 97 81 55 48 77 84 90 84 68 52 35 26 13 6 3 16 3 0 0 0 0 0 0 0 0 0 0 0 0
0 0 0 0 0 0 0 0 0 0 10 19 29 35 42 35 45 65 77 87 90 94 81 81 77 84 81 68 45 26 19 23 10 3 0 3 3 0 0 0 0 0 0 0 0 0 0 0 0
0 0 0 0 0 0 0 0 0 0 3 13 13 19 23 29 32 42 58 65 87 87 87 97 97 97 71 48 19 6 0 0 0 0 0 0 0 0 0 0 0 0 0 0 0 0 0 0 0
0 0 0 0 0 0 0 0 0 0 0 0 0 3 10 23 23 16 26 45 65 74 84 90 97 81 58 32 19 3 0 0 0 0 0 0 0 0 0 0 0 0 0 0 0 0 0 0 0
0 0 0 0 0 0 0 0 0 0 0 0 0 0 3 10 6 10 13 23 45 65 58 68 81 65 61 35 10 0 0 0 0 0 0 0 0 0 0 0 0 0 0 0 0 0 0 0 0
0 0 0 0 0 0 0 0 0 0 0 0 0 0 0 0 6 10 13 13 29 48 48 58 68 58 32 6 0 0 0 0 0 0 0 0 0 0 0 0 0 0 0 0 0 0 0 0 0
0 0 0 0 0 0 0 0 0 0 0 0 0 0 0 3 6 6 3 6 16 32 35 48 35 16 10 0 0 0 0 0 0 0 0 0 0 0 0 0 0 0 0 0 0 0 0 0 0
0 0 0 0 0 0 0 0 0 0 0 0 0 0 0 3 3 6 3 3 6 23 42 29 13 6 0 0 0 0 0 0 0 0 0 0 0 0 0 0 0 0 0 0 0 0 0 0 0
0 0 0 0 0 0 0 0 0 0 0 0 0 0 3 6 3 3 3 3 16 32 39 26 6 0 0 0 0 0 0 0 0 0 0 0 0 0 0 0 0 0 0 0 0 0 0 0 0
0 0 0 0 0 0 0 0 0 0 16 29 10 16 26 23 16 6 0 3 16 23 19 10 0 0 0 0 0 0 0 0 0 0 0 0 0 0 0 0 0 0 0 0 0 0 0 0 0
0 0 0 0 0 0 0 0 0 16 42 29 26 32 48 48 39 10 0 6 10 3 0 0 0 0 0 0 0 0 0 0 0 0 0 0 0 0 0 0 0 0 0 0 0 0 0 0 0
0 0 0 0 0 0 0 0 0 29 39 35 26 23 26 35 26 10 3 0 0 0 0 0 0 0 0 0 0 0 0 0 0 0 0 0 0 0 0 0 0 0 0 0 0 0 0 0 0
0 0 0 0 0 0 0 0 0 3 29 35 26 16 23 16 10 6 0 0 0 0 0 0 0 0 0 0 0 0 0 0 0 0 0 0 0 0 0 0 0 0 0 0 0 0 0 0 0
0 0 0 0 0 0 0 0 0 0 29 32 23 13 6 3 0 0 0 0 0 0 0 0 0 0 0 0 0 0 0 0 0 0 0 0 0 0 0 0 0 0 0 0 0 0 0 0 0
0 0 0 0 0 0 0 0 3 16 26 19 6 3 3 0 0 0 0 0 0 0 0 0 0 0 0 0 0 0 0 0 0 0 0 0 0 0 0 0 0 0 0 0 0 0 0 0 0

GEFSSGP_con_cape1000_024.txt.gz
Probability
0 0 0 0 0 0 0 0 0 0 0 0 0 0 0 0 0 61 97 3 6 32 97 100 100 100 100 100 100 100 100 100 100 100 100 100 100 100 100 100 100 100 100 100 100 100 100 97 90
0 0 0 0 0 0 0 0 0 0 0 3 6 3 0 3 68 100 52 6 3 39 100 100 100 100 100 100 100 100 100 100 100 100 100 100 100 100 100 100 100 100 100 100 100 100 87 71 55
0 0 0 0 0 0 0 0 0 0 3 6 3 3 3 3 68 94 48 10 3 48 90 100 100 100 100 100 100 100 100 100 100 100 100 100 100 100 100 100 100 100 100 100 100 100 84 45 19
0 0 0 0 0 0 0 0 0 0 0 10 3 0 0 23 65 87 39 13 10 35 77 100 100 100 100 100 100 100 100 100 100 100 100 100 100 100 100 100 100 100 100 100 100 94 61 23 6
0 0 0 0 0 0 0 0 0 0 0 10 0 0 3 58 81 87 55 16 16 39 81 100 100 100 100 100 100 100 100 100 100 100 100 100 100 100 100 100 100 100 100 100 97 81 42 16 3
0 0 0 0 0 0 0 0 0 0 0 6 0 0 6 74 90 90 74 58 45 52 81 100 100 100 100 100 100 100 100 100 100 100 100 100 100 100 100 100 100 100 100 100 90 68 32 16 0
0 0 0 0 0 0 0 0 0 0 0 3 0 0 13 52 90 94 94 77 55 61 87 100 100 100 100 100 100 100 100 100 100 100 100 100 100 100 100 100 100 100 100 100 84 58 32 13 0
0 0 0 0 0 0 0 0 0 0 0 6 0 0 0 68 100 97 97 84 74 87 100 100 100 100 100 100 100 100 100 100 100 100 100 100 100 100 100 100 100 100 100 97 77 55 29 13 3
0 0 0 0 0 0 0 0 0 0 0 3 6 0 10 84 100 100 100 97 90 100 100 100 100 100 100 100 100 100 100 100 100 100 100 100 100 100 100 100 100 100 100 94 77 65 29 23 0
0 0 0 0 0 0 0 0 0 0 0 3 13 39 84 100 100 100 97 94 100 100 100 100 100 100 100 100 100 100 100 100 100 100 100 100 100 100 100 100 100 100 100 90 84 58 23 0 0
0 0 0 0 0 0 0 0 0 0 0 0 3 42 90 100 100 100 84 97 100 100 100 100 100 100 100 100 100 100 100 100 100 100 100 100 100 100 100 100 100 100 100 87 81 29 6 0 0
0 0 0 0 0 0 0 0 0 0 0 0 0 35 90 100 100 100 94 90 97 97 100 100 100 100 100 100 100 100 100 100 100 100 100 100 100 100 100 100 100 100 100 90 61 26 3 0 0
0 0 0 0 0 0 0 0 0 0 0 0 0 32 87 97 97 100 100 97 97 100 100 100 100 100 100 100 100 100 100 100 100 100 100 100 100 100 100 100 100 97 90 90 58 23 13 0 0
0 0 0 0 0 0 0 0 0 0 0 3 16 58 77 94 90 100 100 100 100 100 100 100 100 100 100 100 100 100 100 100 100 100 100 100 100 100 100 100 100 94 90 77 58 42 23 0 0
0 0 0 0 0 0 0 0 0 0 0 3 13 48 61 87 97 100 100 100 100 100 100 100 100 100 100 100 100 100 100 100 100 100 100 100 100 100 100 100 94 90 94 81 52 26 3 0 0
0 0 0 0 0 0 0 0 0 0 0 0 3 26 58 90 94 100 100 100 100 100 100 100 100 100 100 100 100 100 100 100 97 97 97 97 97 97 94 94 84 74 48 35 29 3 0 0 0
0 0 0 0 0 0 0 0 0 0 0 0 3 10 32 74 97 97 100 100 100 100 100 100 100 100 100 100 100 100 94 90 90 90 90 90 90 90 84 68 39 35 23 6 3 0 0 0 0
0 0 0 0 0 0 0 0 0 0 0 0 0 10 16 45 81 94 97 100 100 100 100 100 100 100 100 100 90 81 81 77 77 77 71 68 68 58 42 32 23 13 3 3 0 0 0 0 0
0 0 0 0 0 0 0 0 0 0 0 0 0 0 10 26 48 77 94 97 100 100 100 100 100 100 100 97 84 81 71 45 26 26 16 16 19 19 19 6 3 3 3 0 0 0 0 0 0
0 0 0 0 0 0 0 0 0 0 0 0 0 6 10 29 26 45 71 90 100 100 100 100 100 100 97 90 81 68 39 13 6 6 6 6 3 6 0 0 0 0 0 0 0 0 0 0 0
0 0 0 0 0 0 0 0 0 0 0 0 3 6 16 23 32 35 39 71 90 100 100 100 100 97 90 74 58 32 13 0 0 0 0 0 0 0 0 0 0 0 0 0 0 0 0 0 0
0 0 0 0 0 0 0 0 0 0 0 0 10 19 39 45 48 29 32 52 71 94 100 100 97 90 84 65 42 32 16 3 0 0 0 0 0 0 0 0 0 0 0 0 0 0 0 0 0
0 0 0 0 0 0 0 0 0 0 0 3 13 42 45 42 45 58 65 84 84 90 97 100 90 84 65 52 35 29 6 3 0 0 0 0 0 0 0 0 0 0 0 0 0 0 0 0 0
0 0 0 0 0 0 0 0 0 0 0 16 32 39 32 32 29 58 81 84 94 100 94 90 77 52 45 29 26 16 6 0 0 0 0 0 0 0 0 0 0 0 0 0 0 0 0 0 0
0 0 0 0 0 0 0 0 0 13 16 32 48 48 29 23 32 45 58 74 81 84 77 65 48 32 23 13 10 3 3 0 0 0 0 0 0 0 0 0 0 0 0 0 0 0 0 0 0
0 0 0 0 0 0 0 0 3 23 29 45 52 35 35 29 29 19 32 26 26 32 39 35 23 16 3 0 0 0 0 0 0 0 0 0 0 0 0 0 0 0 0 0 0 0 0 0 0
0 0 0 0 0 0 0 0 13 23 39 45 39 32 13 13 6 3 0 0 10 10 10 10 6 3 0 0 0 0 0 0 0 0 0 0 0 0 0 0 0 0 0 0 0 0 0 0 0
0 0 0 0 0 0 0 0 0 39 55 39 42 23 6 0 0 0 0 0 0 0 0 0 3 0 0 0 0 0 0 0 0 0 0 0 0 0 0 0 0 0 0 0 0 0 0 0 0
0 0 0 0 0 0 0 0 0 45 52 39 26 6 0 0 0 0 0 0 0 0 0 0 0 0 0 0 0 0 0 0 0 0 0 0 0 0 0 0 0 0 0 0 0 0 0 0 0
0 0 0 0 0 0 0 0 10 45 58 23 10 0 0 0 0 0 0 0 0 0 0 0 0 0 0 0 0 0 0 0 0 0 0 0 0 0 0 0 0 0 0 0 0 0 0 0 0

GEFSSGP_con_cape1000_030.txt.gz
Probability
0 0 0 0 0 0 0 0 0 0 0 0 0 0 0 6 23 100 71 26 100 90 97 100 100 100 100 100 100 100 100 100 100 100 100 100 100 100 100 100 100 100 100 100 100 100 87 68 61
0 0 0 0 0 0 0 0 0 0 0 0 0 0 0 6 16 45 19 58 97 94 94 100 100 100 100 100 100 100 100 100 100 100 100 100 100 100 100 100 100 100 100 100 100 90 61 45 19
0 0 0 0 0 0 0 0 0 0 0 0 0 0 0 3 3 16 26 52 97 94 97 100 100 100 100 100 100 100 100 100 100 100 100 100 100 100 100 100 100 100 100 100 100 84 35 19 3
0 0 0 0 0 0 0 0 0 0 0 0 0 0 0 0 0 19 16 52 97 100 100 100 100 100 100 100 100 100 100 100 100 100 100 100 100 100 100 100 100 100 100 100 94 61 29 6 0
0 0 0 0 0 0 0 0 0 0 0 0 0 0 10 3 13 10 16 32 84 100 100 100 100 100 100 100 100 100 100 100 100 100 100 100 100 100 100 100 100 100 100 100 71 45 16 3 0
0 0 0 0 0 0 0 0 0 0 0 0 0 3 13 16 19 3 3 26 48 100 100 100 100 100 100 100 100 100 100 100 100 100 100 100 100 100 100 100 100 100 97 84 65 35 10 3 0
0 0 0 0 0 0 0 0 0 0 0 0 0 3 19 19 16 6 10 23 48 100 100 100 100 100 100 100 100 100 100 100 100 100 100 100 100 100 100 100 100 100 100 87 58 32 10 0 0
0 0 0 0 0 0 0 0 0 0 0 0 0 0 23 42 32 13 19 23 45 100 100 100 100 100 100 100 100 100 100 100 100 100 100 100 100 100 100 100 100 100 97 87 55 39 23 3 0
0 0 0 0 0 0 0 0 0 0 0 0 0 3 42 42 29 23 19 23 61 100 100 100 100 100 100 100 100 100 100 100 100 100 100 100 100 100 100 94 100 100 97 94 71 52 35 29 13
0 0 0 0 0 0 0 0 0 0 0 0 0 19 45 48 55 32 19 26 68 100 100 100 100 100 100 100 100 100 100 100 100 100 100 100 100 100 100 100 100 100 100 100 84 71 58 32 3
0 0 0 0 0 0 0 0 0 0 0 0 3 26 52 58 61 45 39 55 81 100 100 100 100 100 100 100 100 100 100 100 100 100 100 100 100 100 100 100 100 100 100 100 94 77 39 10 23
0 0 0 0 0 0 0 0 0 0 0 0 3 19 61 68 52 45 48 55 94 97 100 100 100 100 100 100 100 100 100 100 100 100 100 100 100 100 100 100 100 100 97 100 94 81 39 19 6
0 0 0 0 0 0 0 0 0 0 0 0 3 13 45 61 58 42 45 58 97 100 100 100 100 100 100 100 100 100 100 100 100 100 100 100 100 100 100 100 97 97 97 97 97 84 52 23 10
0 0 0 0 0 0 0 0 0 0 0 0 3 3 19 52 52 65 52 68 94 100 100 100 100 100 100 100 100 100 100 100 100 100 100 100 100 97 97 97 97 94 94 94 90 90 77 58 48
0 0 0 0 0 0 0 0 0 0 0 0 0 6 13 35 55 61 58 84 94 100 100 100 100 100 100 100 100 100 100 100 100 100 100 100 100 100 97 97 97 97 94 90 87 81 68 52 26
0 0 0 0 0 0 0 0 0 0 0 0 0 6 6 39 45 55 58 90 97 100 100 100 100 100 100 100 100 100 100 100 94 97 94 97 100 100 97 97 97 90 87 87 84 65 39 29 26
0 0 0 0 0 0 0 0 0 0 0 0 0 3 6 16 29 42 61 94 97 100 100 100 100 100 100 100 100 100 100 90 84 84 84 84 94 94 94 87 81 74 58 32 29 32 16 10 0
0 0 0 0 0 0 0 0 0 0 0 0 0 3 0 10 32 32 71 94 97 100 100 100 100 100 100 97 97 97 84 74 68 65 65 58 61 61 61 58 48 29 19 13 10 6 3 6 0
0 0 0 0 0 0 0 0 0 0 0 0 0 3 6 6 16 39 74 87 100 100 100 100 100 100 100 97 97 90 65 58 55 55 45 39 32 39 29 23 19 16 16 6 3 0 0 0 0
0 0 0 0 0 0 0 0 0 0 0 0 0 6 6 6 16 39 48 77 94 100 100 100 100 100 100 97 97 84 58 48 39 29 26 16 10 6 3 10 10 10 6 0 0 0 0 0 0
0 0 0 0 0 0 0 0 0 0 0 0 3 6 16 16 29 48 58 77 84 94 100 100 100 100 100 94 81 58 29 16 13 13 3 0 0 0 0 3 3 3 3 0 0 0 0 0 0
0 0 0 0 0 0 0 0 0 0 0 0 3 10 35 55 65 71 74 77 87 100 100 100 100 100 97 81 68 58 42 13 16 3 3 0 0 0 0 0 0 0 0 0 0 0 0 0 0
0 0 0 0 0 0 0 0 0 0 0 0 16 42 65 74 74 81 87 90 90 97 100 100 97 97 87 71 65 65 39 29 3 3 3 0 0 0 0 0 0 0 0 0 0 0 0 0 0
0 0 0 0 0 0 0 0 0 0 3 13 42 74 71 81 84 90 90 97 100 97 94 90 84 77 68 61 52 48 42 10 3 3 3 0 0 0 0 0 0 0 0 0 0 0 0 0 0
0 0 0 0 0 0 0 0 0 45 71 68 77 68 58 48 58 65 65 71 71 71 65 65 68 55 48 45 32 42 16 3 3 3 0 0 0 0 0 0 0 0 0 0 0 0 0 0 0
0 0 0 0 0 0 0 0 13 65 90 87 58 48 45 35 26 29 26 26 35 39 32 29 23 23 16 10 10 3 3 3 3 3 0 0 0 0 0 0 0 0 0 0 0 0 0 0 0
0 0 0 0 0 0 0 3 55 84 90 74 52 32 23 16 10 10 10 10 6 3 3 0 0 0 3 0 3 3 3 3 0 0 0 0 0 0 0 0 0 0 0 0 0 0 0 0 0
0 0 0 0 0 0 0 3 42 81 87 61 39 16 3 0 0 0 0 0 0 0 3 0 3 0 0 0 0 0 0 0 0 0 0 0 0 0 0 0 0 0 0 0 0 0 0 0 0
0 0 0 0 0 0 0 0 48 68 81 55 26 3 0 0 0 0 0 0 0 0 0 0 0 0 0 0 0 0 0 0 0 0 0 0 0 0 0 0 0 0 0 0 0 0 0 0 0
0 0 0 0 0 0 0 29 81 90 68 48 6 0 3 0 0 0 0 0 0 0 0 0 0 0 0 0 0 0 0 0 0 0 0 0 0 0 0 0 0 0 0 0 0 0 0 0 0

GEFSSGP_con_cape1000_036.txt.gz
Probability
0 0 0 0 0 0 0 0 0 0 0 0 0 6 35 39 10 6 0 0 45 100 100 100 100 100 100 100 100 100 100 100 100 100 100 100 100 100 100 100 100 100 100 100 100 94 87 87 84
0 0 0 0 0 0 0 0 0 0 0 0 0 19 32 61 65 13 0 0 68 100 100 100 100 100 100 100 100 100 100 100 100 100 100 100 100 100 100 100 100 100 100 100 97 87 48 45 35
0 0 0 0 0 0 0 0 0 0 0 0 0 0 6 32 61 26 0 23 68 97 100 100 100 100 100 100 100 100 100 100 100 100 100 100 100 100 100 100 100 100 100 100 84 45 23 10 13
0 0 0 0 0 0 0 0 0 0 0 0 0 0 0 16 65 19 3 23 55 97 100 100 100 100 100 100 100 100 100 100 100 100 100 100 100 100 100 100 100 100 100 100 71 39 13 6 6
0 0 0 0 0 0 0 0 0 0 0 0 0 6 6 26 77 23 6 16 68 100 100 100 100 100 100 100 100 100 100 100 100 100 100 100 100 100 100 100 100 100 100 87 58 29 16 3 3
0 0 0 0 0 0 0 0 0 0 0 0 0 0 3 65 61 19 13 16 71 100 100 100 100 100 100 100 100 100 100 100 100 100 100 100 100 100 100 100 100 100 97 81 55 35 16 3 3
0 0 0 0 0 0 0 0 0 0 0 0 0 0 3 32 61 52 26 35 61 100 100 100 100 100 100 100 100 100 100 100 100 100 100 100 100 100 100 100 100 100 97 81 58 48 32 19 3
0 0 0 0 0 0 0 0 0 0 0 0 0 0 0 10 19 65 74 74 61 90 100 100 100 100 100 100 100 100 100 100 100 100 100 100 100 100 100 100 100 100 100 90 71 58 48 42 19
0 0 0 0 0 0 0 0 0 0 0 0 0 0 0 3 19 65 84 87 84 81 97 100 100 100 100 100 100 100 100 100 100 100 100 100 100 100 100 100 100 100 100 100 81 74 61 55 35
0 0 0 0 0 0 0 0 0 0 0 0 0 0 0 3 23 61 81 94 84 71 71 97 97 100 100 100 100 100 100 100 100 100 100 97 77 87 97 100 100 100 100 100 100 90 81 52 13
0 0 0 0 0 0 0 0 0 0 0 0 0 0 0 3 10 45 81 94 87 65 61 90 97 97 97 94 100 100 100 100 97 97 100 55 10 19 71 81 100 100 100 97 90 81 58 23 0
0 0 0 0 0 0 0 0 0 0 0 0 0 0 0 0 6 23 65 97 87 71 68 84 81 68 52 84 81 84 71 68 48 45 61 19 6 13 42 55 87 90 68 26 23 16 13 0 0
0 0 0 0 0 0 0 0 0 0 0 0 0 0 0 0 0 6 48 81 87 90 77 84 84 77 74 74 45 45 48 35 23 55 48 32 10 23 29 48 52 45 29 16 13 6 3 0 0
0 0 0 0 0 0 0 0 0 0 0 0 0 0 0 0 3 3 23 55 81 87 94 94 90 87 90 87 71 68 68 68 39 65 68 48 23 26 23 26 35 39 23 13 6 6 6 0 0
0 0 0 0 0 0 0 0 0 0 0 3 3 3 0 3 3 3 13 39 77 81 87 94 97 100 97 90 94 94 87 87 74 77 71 65 32 16 23 26 32 32 19 13 6 3 0 0 0
0 0 0 0 0 0 0 0 0 0 0 0 3 3 6 0 3 3 6 26 52 71 87 94 100 100 100 100 100 100 90 84 81 74 81 77 65 35 23 29 26 10 10 3 3 0 0 0 0
0 0 0 0 0 0 0 0 0 0 0 0 0 0 3 6 6 6 3 19 35 48 74 90 94 100 100 100 97 90 87 81 81 65 65 74 68 48 26 19 10 10 10 0 0 0 0 0 0
0 0 0 0 0 0 0 0 0 0 0 0 0 3 0 3 6 6 6 16 23 32 81 87 97 97 97 94 84 81 65 61 58 48 55 48 45 32 16 10 6 10 6 0 0 0 0 0 0
0 0 0 0 0 0 0 0 0 0 0 0 0 3 3 13 10 23 26 26 26 45 61 84 94 94 90 84 71 71 58 48 42 32 23 26 19 13 10 10 3 0 0 0 0 0 0 0 0
0 0 0 0 0 0 0 0 0 0 0 0 0 6 3 16 16 26 29 32 29 35 61 77 94 94 81 74 65 52 32 16 13 6 6 6 6 6 6 0 0 0 0 0 0 0 0 0 0
0 0 0 0 0 0 0 0 3 3 3 13 13 19 29 26 23 26 29 26 32 42 58 74 84 81 77 61 52 32 10 6 3 3 3 3 3 3 0 0 0 0 0 0 0 0 0 0 0
0 0 0 0 0 0 0 0 3 6 10 23 26 29 32 52 61 39 32 35 45 42 52 65 74 74 71 55 45 45 35 19 0 0 0 0 0 0 0 0 0 0 0 0 0 0 0 0 0
0 0 0 0 0 0 0 0 0 3 16 29 39 45 55 48 58 65 61 58 61 58 61 68 71 65 52 55 48 45 26 6 0 0 0 0 0 0 0 0 0 0 0 0 0 0 0 0 0
0 0 0 0 0 0 0 0 0 10 16 52 52 48 45 48 42 42 45 52 58 55 55 65 55 55 45 39 26 23 6 3 0 0 0 0 0 0 0 0 0 0 0 0 0 0 0 0 0
0 0 0 0 0 0 0 0 10 42 42 45 39 10 10 13 19 29 32 32 29 39 48 42 45 42 23 23 10 6 0 0 0 0 0 0 0 0 0 0 0 0 0 0 0 0 0 0 0
0 0 0 0 0 0 0 3 48 55 26 13 3 3 3 3 3 3 3 10 13 10 10 10 19 13 10 6 3 0 0 0 0 0 0 0 0 0 0 0 0 0 0 0 0 0 0 0 0
0 0 0 0 0 0 0 29 77 52 23 0 0 0 0 0 0 0 0 0 3 6 6 6 3 3 3 0 0 0 0 0 0 0 0 0 0 0 0 0 0 0 0 0 0 0 0 0 0
0 0 0 0 0 0 0 0 32 61 19 0 0 0 0 0 0 0 0 0 0 0 0 0 0 0 0 0 0 0 0 0 0 0 0 0 0 0 0 0 0 0 0 0 0 0 0 0 0
0 0 0 0 0 0 0 0 10 32 3 0 0 0 0 0 0 0 0 0 0 0 0 0 0 0 0 0 0 0 0 0 0 0 0 0 0 0 0 0 0 0 0 0 0 0 0 0 0
0 0 0 0 0 0 0 0 10 3 0 0 0 0 0 0 0 0 0 0 0 0 0 0 0 0 0 0 0 0 0 0 0 0 0 0 0 0 0 0 0 0 0 0 0 0 0 0 0

GEFSSGP_con_cape1000_042.txt.gz
Probability
0 0 0 0 0 0 0 0 0 0 0 0 0 0 0 0 0 0 0 0 42 100 100 100 100 100 100 100 100 100 100 100 100 100 100 100 100 100 100 100 100 100 100 100 100 100 100 100 100
0 0 0 0 0 0 0 0 0 0 0 0 0 3 19 39 0 0 0 35 90 100 100 100 100 100 100 100 100 100 100 100 100 100 100 100 100 100 100 100 100 100 100 100 97 94 90 94 97
0 0 0 0 0 0 0 0 0 0 0 0 0 0 26 45 10 0 0 84 100 100 100 100 100 100 100 100 100 100 100 100 100 100 100 100 100 100 100 100 100 100 100 97 94 84 74 74 77
0 0 0 0 0 0 0 0 0 0 0 0 0 0 0 55 16 0 45 100 100 100 100 100 100 100 100 100 100 100 100 100 100 100 100 100 100 100 100 100 100 100 100 97 81 65 48 48 52
0 0 0 0 0 0 0 0 0 0 0 0 0 3 19 42 13 16 94 100 97 97 97 100 100 100 100 100 100 100 100 100 100 100 100 100 100 100 100 100 100 100 100 87 74 55 32 35 42
0 0 0 0 0 0 0 0 0 0 0 0 0 3 19 26 42 68 74 77 90 97 100 100 100 100 100 100 100 100 100 100 100 100 100 100 100 100 100 100 100 100 97 84 65 39 19 13 13
0 0 0 0 0 0 0 0 0 0 0 0 0 13 29 26 29 42 52 81 90 94 100 100 100 100 100 100 100 100 100 100 100 100 100 100 100 100 100 100 100 100 97 84 61 35 23 13 13
0 0 0 0 0 0 0 0 0 0 0 0 0 13 35 23 26 23 55 81 94 97 100 100 100 100 100 100 100 100 100 100 100 100 100 100 100 100 100 100 100 100 97 84 65 48 35 32 13
0 0 0 0 0 0 0 0 0 0 0 0 0 0 26 26 23 29 71 87 97 100 100 100 100 100 100 100 100 100 100 100 100 100 100 100 100 100 100 100 100 100 97 94 87 65 55 42 35
0 0 0 0 0 0 0 0 0 0 0 0 0 10 42 39 23 35 45 81 90 100 100 100 100 100 100 100 100 100 100 100 100 100 100 100 100 100 100 100 100 100 100 100 97 90 68 52 23
0 0 0 0 0 0 0 0 0 0 0 0 0 16 74 55 29 29 23 19 71 81 100 97 100 100 100 100 100 100 100 100 100 100 100 87 61 74 97 84 97 100 100 94 68 52 42 26 10
0 0 0 0 0 0 0 0 0 0 0 0 0 26 77 81 58 45 29 16 23 58 87 97 97 97 94 94 100 97 97 100 94 94 87 48 19 19 29 23 39 81 71 39 19 13 10 10 0
0 0 0 0 0 0 0 0 0 0 0 0 3 35 65 77 84 68 48 26 10 26 68 87 94 94 84 58 87 84 74 77 71 65 55 32 19 13 10 13 13 35 23 16 13 10 13 3 0
0 0 0 0 0 0 0 0 0 0 0 0 3 29 42 71 81 77 77 52 26 10 29 61 90 87 68 39 61 61 42 39 26 26 32 13 10 0 3 3 6 10 10 3 6 6 3 0 0
0 0 0 0 0 0 0 0 0 0 0 0 3 19 29 39 68 71 81 74 58 26 23 32 65 55 35 26 29 26 32 19 19 16 13 13 10 0 0 3 3 3 3 3 3 0 0 0 0
0 0 0 0 0 0 0 0 0 0 0 0 0 6 10 16 42 68 74 84 74 61 19 29 65 39 23 13 13 10 10 10 10 0 0 16 10 0 0 0 0 0 3 3 0 0 0 0 0
0 0 0 0 0 0 0 0 0 0 0 0 0 0 3 6 6 29 61 74 87 77 52 45 52 32 19 6 6 6 6 3 6 10 0 19 10 0 0 0 0 0 0 0 0 0 0 0 0
0 0 0 0 0 0 0 0 0 0 0 0 0 0 3 3 3 10 35 65 81 77 71 65 65 58 26 10 16 16 19 19 16 13 13 10 13 10 0 0 0 3 0 0 0 0 0 0 0
0 0 0 0 0 0 0 0 0 0 0 0 0 0 3 3 3 6 23 48 65 68 65 77 71 68 61 55 55 55 48 42 29 29 26 16 13 6 3 0 0 0 0 0 0 0 0 0 0
0 0 0 0 0 0 0 0 0 3 3 0 3 6 3 3 3 6 19 29 48 58 61 68 68 71 71 58 58 42 35 16 16 10 6 6 6 6 6 3 3 0 0 0 0 0 0 0 0
0 0 0 0 0 0 0 0 0 10 16 23 19 19 19 16 13 13 19 35 42 52 52 71 81 74 61 61 35 13 3 3 3 0 0 0 0 0 0 0 0 0 0 0 0 0 0 0 0
0 0 0 0 0 0 0 0 0 10 23 29 32 29 29 26 19 16 13 29 39 35 39 48 65 61 68 58 52 45 42 35 16 6 0 0 0 0 0 0 0 0 0 0 0 0 0 0 0
0 0 0 0 0 0 0 0 3 3 19 35 35 32 19 16 19 19 29 26 29 29 32 45 61 55 55 45 42 42 26 16 3 0 0 0 0 0 0 0 0 0 0 0 0 0 0 0 0
0 0 0 0 0 0 0 0 6 23 23 35 35 19 13 10 13 16 23 26 29 19 29 39 42 48 39 35 35 29 13 6 3 0 0 0 0 0 0 0 0 0 0 0 0 0 0 0 0
0 0 0 0 0 0 0 0 19 35 23 23 19 6 10 10 6 10 13 16 23 26 29 29 26 26 26 19 13 10 10 3 3 0 0 0 0 0 0 0 0 0 0 0 0 0 0 0 0
0 0 0 0 0 0 0 3 39 19 3 6 3 0 0 3 3 3 3 3 10 13 16 13 10 10 3 3 3 3 3 0 0 0 0 0 0 0 0 0 0 0 0 0 0 0 0 0 0
0 0 0 0 0 0 0 16 35 16 6 0 0 0 0 0 0 0 3 3 3 3 6 6 6 3 3 3 3 0 0 0 0 0 0 0 0 0 0 0 0 0 0 0 0 0 0 0 0
0 0 0 0 0 0 0 0 6 26 3 0 0 0 0 0 0 0 0 0 0 0 0 0 3 3 3 0 0 0 0 0 0 0 0 0 0 0 0 0 0 0 0 0 0 0 0 0 0
0 0 0 0 0 0 0 0 0 10 3 0 0 0 0 0 0 0 0 0 0 0 0 0 0 0 0 0 0 0 0 0 0 0 0 0 0 0 0 0 0 0 0 0 0 0 0 0 0
0 0 0 0 0 0 0 0 0 0 0 0 0 0 0 0 0 0 0 0 0 0 0 0 0 0 0 0 0 0 0 0 0 0 0 0 0 0 0 0 0 0 0 0 0 0 0 0 0

GEFSSGP_con_cape1000_048.txt.gz
Probability
0 0 0 0 0 0 0 0 0 0 0 0 0 0 0 0 0 39 100 97 94 81 90 100 100 100 100 100 100 100 100 100 100 100 100 100 100 100 100 100 100 100 100 100 100 100 100 100 100
0 0 0 0 0 0 0 0 0 0 0 0 0 0 3 6 61 90 100 97 97 81 87 90 100 100 100 100 100 100 100 100 100 100 100 100 100 100 100 100 100 100 100 100 100 100 100 100 100
0 0 0 0 0 0 0 0 0 0 0 0 0 0 3 42 81 100 100 100 94 84 90 100 100 100 100 100 100 100 100 100 100 100 100 100 100 100 100 100 100 100 100 100 100 100 100 100 100
0 0 0 0 0 0 0 0 0 0 0 0 0 0 32 90 94 100 100 100 90 84 94 100 100 100 100 100 100 100 100 100 100 100 100 100 100 100 100 100 100 100 100 100 87 90 90 94 97
0 0 0 0 0 0 0 0 0 0 0 0 0 0 52 100 97 100 100 100 94 87 94 100 100 100 100 100 100 100 100 100 100 100 100 100 100 100 100 100 100 100 97 84 71 55 58 65 68
0 0 0 0 0 0 0 0 0 0 0 0 0 0 84 100 100 100 100 100 97 90 94 100 100 100 100 100 100 100 100 100 100 100 100 100 100 100 100 100 100 97 84 74 48 26 19 26 35
0 0 0 0 0 0 0 0 0 0 0 0 0 3 84 100 100 100 100 100 97 94 97 100 100 100 100 100 100 100 100 100 100 100 100 100 100 100 100 100 100 97 87 71 39 26 16 13 19
0 0 0 0 0 0 0 0 0 0 0 0 0 0 42 100 100 100 100 100 97 97 100 100 100 100 100 100 100 100 100 100 100 100 100 100 100 100 100 100 100 97 87 74 45 35 26 10 10
0 0 0 0 0 0 0 0 0 0 0 0 0 3 39 97 100 100 100 100 100 100 100 100 97 100 100 100 100 100 100 100 100 100 100 100 100 90 100 100 100 97 90 81 65 48 39 32 19
0 0 0 0 0 0 0 0 0 0 0 0 3 13 71 97 100 100 100 100 100 100 100 97 97 97 100 100 100 100 100 100 100 100 100 100 100 97 48 100 100 100 100 94 84 65 48 32 19
0 0 0 0 0 0 0 0 0 0 0 0 0 13 71 97 100 100 100 100 100 100 100 100 100 100 100 100 100 100 100 100 100 100 100 100 100 100 81 97 100 100 100 94 94 71 35 19 19
0 0 0 0 0 0 0 0 0 0 0 0 0 10 58 84 97 100 100 100 100 100 100 100 100 100 100 100 100 100 100 100 100 100 100 100 100 94 90 100 77 94 97 97 84 61 45 32 19
0 0 0 0 0 0 0 0 0 0 0 0 0 10 42 74 87 100 97 97 97 100 100 100 100 100 100 100 100 100 100 100 100 100 100 100 100 94 94 100 97 90 90 100 94 61 52 45 29
0 0 0 0 0 0 0 0 0 0 0 0 3 6 29 52 81 94 100 100 100 100 100 100 100 100 100 100 100 100 100 100 100 100 100 100 100 90 100 100 100 97 97 97 94 87 77 58 26
0 0 0 0 0 0 0 0 0 0 0 0 3 6 29 48 81 94 100 100 100 100 100 100 100 100 100 100 100 100 100 100 100 100 100 100 97 100 100 97 100 100 100 100 100 97 71 65 35
0 0 0 0 0 0 0 0 0 0 0 0 3 13 39 58 84 94 100 100 100 100 100 100 100 100 100 100 100 100 100 100 100 100 100 100 100 100 100 100 100 100 100 100 100 90 71 45 29
0 0 0 0 0 0 0 0 0 0 0 6 13 29 55 68 84 94 100 100 100 100 100 100 100 100 100 100 100 100 100 100 100 100 100 100 100 100 100 100 100 100 100 100 87 84 84 65 55
0 0 0 0 0 0 0 0 3 3 3 10 16 42 58 81 90 97 100 100 100 100 100 100 100 100 100 100 100 100 100 100 100 100 100 100 100 100 100 100 97 97 100 100 84 84 77 71 61
0 0 0 0 0 0 0 6 16 16 10 13 19 42 48 65 77 90 97 97 100 100 100 100 100 100 100 100 100 100 100 100 100 100 100 97 90 90 90 84 84 84 84 87 65 65 58 48 32
0 0 0 0 0 3 3 10 19 23 26 32 32 39 52 65 81 87 97 100 100 100 100 100 100 100 100 100 100 100 100 97 97 90 90 87 87 87 77 77 77 65 71 61 58 45 35 16 16
0 0 0 0 0 0 0 13 23 29 39 39 39 39 55 65 71 77 87 94 97 100 97 100 100 100 100 94 94 90 90 87 84 81 81 81 74 74 65 61 61 61 58 48 39 26 29 6 0
0 0 0 0 0 0 0 0 26 39 39 35 39 42 45 45 61 68 74 81 87 90 100 100 97 94 94 94 94 90 90 87 84 81 68 48 45 45 42 45 45 39 23 19 16 10 6 6 0
0 0 0 0 0 0 0 0 19 32 35 45 61 52 52 52 45 55 61 74 74 84 84 90 90 90 90 90 84 84 87 77 68 65 39 19 19 10 10 13 13 10 6 0 0 0 0 0 0
0 0 0 0 0 0 0 0 19 39 39 48 42 39 39 35 39 45 45 45 55 65 68 74 81 81 81 77 81 84 77 74 65 55 26 19 13 3 3 3 6 6 3 3 0 0 0 0 0
0 0 0 0 0 0 0 3 48 42 42 39 32 26 23 23 23 23 29 39 39 45 48 52 55 55 61 61 61 61 61 55 48 26 16 6 6 3 3 3 3 3 3 3 3 3 0 0 0
0 0 0 0 0 0 0 6 45 45 35 19 19 13 13 13 6 10 10 19 19 26 29 35 39 32 32 39 39 39 39 26 13 6 6 3 3 3 0 0 0 0 0 0 0 0 0 0 0
0 0 0 0 0 0 0 26 39 39 23 16 13 13 10 6 0 0 3 3 6 6 13 16 19 19 23 16 13 13 10 6 6 3 3 6 3 3 0 0 0 0 0 0 0 0 0 0 0
0 0 0 0 0 0 0 0 32 42 19 16 13 6 0 0 0 0 3 0 0 3 3 3 3 0 0 0 0 0 0 0 0 0 0 0 0 0 0 0 0 0 0 0 0 0 0 0 0
0 0 0 0 0 0 0 0 32 55 32 23 13 0 0 0 0 0 0 0 0 0 0 0 0 0 0 0 0 0 0 0 0 0 0 0 0 0 0 0 0 0 0 0 0 0 0 0 0
0 0 0 0 0 0 0 35 39 55 35 26 3 0 0 0 0 0 0 0 0 0 0 0 0 0 0 0 0 0 0 0 0 0 0 0 0 0 0 0 0 0 0 0 0 0 0 0 0

GEFSSGP_con_cape1000_054.txt.gz
Probability
0 0 0 0 0 0 0 0 0 0 0 0 0 0 0 6 42 65 74 87 100 97 97 100 100 100 100 100 100 100 100 100 100 100 100 100 100 100 100 100 100 100 100 100 100 100 100 100 100
0 0 0 0 0 0 0 0 0 0 0 0 0 0 3 23 39 68 81 94 100 97 97 97 100 100 100 100 100 100 100 100 100 100 100 100 100 100 100 100 100 100 100 100 100 100 100 100 100
0 0 0 0 0 0 0 0 0 0 0 0 0 0 10 39 32 77 90 97 100 97 97 100 100 100 100 100 100 100 100 100 100 100 100 100 100 100 100 100 100 100 100 100 100 100 100 100 100
0 0 0 0 0 0 0 0 0 0 0 0 0 3 39 32 35 87 90 97 100 100 100 100 100 100 100 100 100 100 100 100 100 100 100 100 100 100 100 100 100 100 100 97 97 100 100 100 97
0 0 0 0 0 0 0 0 0 0 0 0 0 16 61 55 68 94 94 97 100 100 100 100 100 100 100 100 100 100 100 100 100 100 100 100 100 100 100 100 97 90 90 81 71 81 77 84 81
0 0 0 0 0 0 0 0 0 0 0 0 0 26 74 84 94 97 97 100 100 100 100 100 100 100 100 100 100 100 100 100 100 100 100 100 100 100 100 100 97 90 81 58 52 48 55 58 61
0 0 0 0 0 0 0 0 0 0 0 0 0 32 71 81 100 97 100 100 100 100 100 100 100 100 100 100 100 100 100 100 100 100 100 100 100 100 100 100 94 81 74 48 29 23 26 26 39
0 0 0 0 0 0 0 0 0 0 0 0 0 26 81 90 97 97 100 100 100 97 97 100 100 100 100 100 100 100 100 100 100 100 100 100 100 100 100 97 97 81 68 45 39 16 13 19 19
0 0 0 0 0 0 0 0 0 0 0 0 0 35 68 84 97 97 100 97 100 97 97 100 100 100 100 100 100 100 100 100 100 100 100 100 100 100 100 94 94 84 71 52 35 32 26 23 29
0 0 0 0 0 0 0 0 0 0 0 0 0 39 52 81 97 97 100 100 97 100 100 94 100 100 100 100 100 100 97 100 97 100 100 100 100 100 90 94 94 90 84 71 65 42 35 29 16
0 0 0 0 0 0 0 0 0 0 0 0 13 39 55 84 94 97 97 100 100 100 100 90 100 100 100 100 97 100 94 100 100 100 100 100 100 100 100 97 100 97 97 81 84 61 29 26 42
0 0 0 0 0 0 0 0 0 0 0 0 10 32 48 77 81 97 97 100 100 100 100 100 100 100 100 100 100 100 100 100 100 100 100 100 100 100 100 97 97 100 94 97 90 84 52 55 58
0 0 0 0 0 0 0 0 0 0 0 0 3 23 32 48 71 90 97 100 100 100 100 100 100 100 100 100 100 100 100 100 100 100 100 100 100 100 100 100 100 100 100 100 100 94 84 74 58
0 0 0 0 0 0 0 0 0 0 0 0 3 13 23 26 52 77 100 94 100 100 100 100 100 100 100 100 100 100 100 100 100 100 100 100 100 100 100 100 100 100 100 97 100 100 100 87 84
0 0 0 0 0 0 0 0 0 0 0 0 0 10 13 26 32 68 94 100 100 100 100 100 100 100 100 100 100 100 100 100 100 100 97 97 97 100 100 100 100 100 100 100 100 100 100 100 87
0 0 0 0 0 0 0 0 0 0 0 0 0 6 10 19 35 42 90 100 100 100 100 100 100 100 100 100 100 100 100 100 100 100 100 100 100 100 100 100 100 100 100 100 100 100 100 97 90
0 0 0 0 0 0 0 0 0 0 0 3 3 10 10 19 23 45 77 97 100 100 100 100 100 100 100 100 100 100 100 100 100 100 100 100 100 100 100 97 97 94 90 94 90 94 97 87 87
0 0 0 0 0 0 0 0 0 6 6 3 3 3 13 32 45 65 87 100 100 100 100 100 100 100 100 100 100 100 100 100 100 100 100 100 100 97 97 97 94 94 90 84 81 74 71 71 58
0 0 0 0 0 0 3 6 16 19 26 19 16 23 29 35 58 81 90 100 100 100 100 100 100 100 100 100 100 100 100 97 94 94 94 94 90 90 94 90 94 87 87 81 77 68 58 58 32
0 0 0 0 3 3 6 6 23 32 35 32 35 35 39 45 61 77 94 94 94 97 100 100 100 100 100 100 97 97 97 94 94 90 90 87 87 84 81 84 84 81 77 74 68 61 58 26 10
0 0 0 0 0 3 10 13 19 39 39 32 35 42 45 45 58 71 81 77 81 90 97 97 97 97 94 94 94 94 94 90 90 90 90 81 81 81 77 74 74 71 65 58 55 48 35 23 10
0 0 0 0 0 0 0 6 13 26 29 39 42 39 39 35 42 52 48 61 71 81 81 90 87 84 84 87 90 94 90 90 90 84 81 68 65 52 58 58 58 55 55 48 42 35 26 16 6
0 0 0 0 0 0 0 0 16 16 29 32 39 29 23 23 19 29 39 45 42 45 61 71 65 71 74 81 81 81 87 81 71 71 65 55 42 23 19 16 13 19 16 13 13 13 13 10 6
0 0 0 0 0 0 0 0 13 29 39 35 23 16 19 16 16 23 29 29 32 32 39 39 48 55 58 55 55 58 65 55 58 55 48 26 19 16 6 6 6 10 10 6 6 6 6 6 3
0 0 0 0 0 0 0 0 26 32 35 32 26 23 23 19 19 19 13 13 19 29 32 32 32 32 29 32 32 29 32 35 39 39 19 13 10 10 10 3 3 3 3 3 3 0 3 3 0
0 0 0 0 0 0 0 0 35 29 29 26 23 16 16 10 6 6 6 6 6 6 13 23 26 26 23 13 16 16 16 16 16 13 10 6 3 3 3 3 3 3 3 3 0 0 0 0 0
0 0 0 0 0 0 0 26 39 39 32 29 16 16 10 6 6 6 6 6 6 6 6 6 3 3 3 3 0 0 0 0 0 0 0 0 0 0 0 0 0 0 0 0 0 0 0 0 0
0 0 0 0 0 0 0 10 26 29 29 19 13 10 6 3 3 3 0 0 0 0 0 0 0 0 0 0 0 0 0 0 0 0 0 0 0 0 0 0 0 0 0 0 0 0 0 0 0
0 0 0 0 0 0 0 0 0 13 23 13 6 6 3 0 0 0 0 0 0 0 0 0 0 0 0 0 0 0 0 0 0 0 0 0 0 0 0 0 0 0 0 0 0 0 0 0 0
0 0 0 0 0 0 0 6 13 16 13 10 6 0 0 0 0 0 0 0 0 0 0 0 0 0 0 0 0 0 0 0 0 0 0 0 0 0 0 0 0 0 0 0 0 0 0 0 0

GEFSSGP_con_cape1000_060.txt.gz
Probability
0 0 0 0 0 0 0 0 0 0 0 0 0 0 0 3 6 10 16 52 65 87 97 100 100 100 100 100 100 100 100 100 100 100 100 100 100 100 100 100 100 100 100 100 100 100 100 100 100
0 0 0 0 0 0 0 0 0 0 0 0 0 6 16 19 29 52 61 68 71 90 97 100 100 100 100 100 100 100 100 100 100 100 100 100 100 100 100 100 100 100 100 100 100 100 100 100 100
0 0 0 0 0 0 0 0 0 0 0 0 0 6 19 29 52 71 74 81 77 90 94 100 100 100 100 100 100 100 100 100 100 100 100 100 100 100 100 100 100 100 100 100 100 100 100 100 100
0 0 0 0 0 0 0 0 0 0 0 0 3 10 16 42 55 74 84 87 81 97 97 100 100 100 100 100 100 100 100 100 100 100 100 100 100 100 100 100 100 100 100 100 100 100 100 100 100
0 0 0 0 0 0 0 0 0 0 0 0 3 23 32 55 74 81 90 84 87 94 97 100 100 100 100 100 100 100 100 100 100 100 100 100 100 100 100 100 100 97 97 97 97 100 97 97 90
0 0 0 0 0 0 0 0 0 0 0 0 10 19 32 55 77 84 90 87 90 94 100 100 100 100 100 100 100 100 100 100 100 100 100 100 100 100 100 100 97 94 94 87 77 77 81 74 74
0 0 0 0 0 0 0 0 0 0 0 0 10 32 26 48 74 77 87 90 90 97 100 100 100 100 100 100 100 100 100 100 100 100 100 100 100 100 100 97 90 81 77 71 58 58 55 52 48
0 0 0 0 0 0 0 0 0 0 0 0 6 19 23 29 61 84 87 94 97 97 100 100 100 100 100 100 100 100 100 100 100 100 100 100 100 100 100 97 97 81 81 61 42 45 42 45 45
0 0 0 0 0 0 0 0 0 0 0 0 3 23 19 23 48 77 94 100 100 100 100 100 100 100 100 100 100 100 100 100 100 100 100 100 100 100 100 94 94 84 74 68 52 48 52 45 39
0 0 0 0 0 0 0 0 0 0 0 0 10 13 16 23 52 74 97 97 100 100 100 100 100 100 100 100 100 100 100 100 100 100 100 97 71 71 94 90 90 87 84 77 71 58 48 35 10
0 0 0 0 0 0 0 0 0 0 0 0 10 13 29 35 48 77 94 94 94 100 100 100 100 100 100 100 100 100 97 87 84 94 87 29 19 35 58 68 90 87 81 71 68 68 39 26 3
0 0 0 0 0 0 0 0 0 0 0 0 13 29 32 39 42 58 84 90 90 94 94 100 97 97 87 97 94 77 65 61 42 48 39 16 3 10 6 32 61 55 39 19 6 10 13 6 6
0 0 0 0 0 0 0 0 0 0 0 6 19 26 29 39 42 48 71 84 87 94 84 94 97 87 71 68 65 48 35 23 16 19 19 10 0 6 13 10 13 16 10 6 0 3 3 6 3
0 0 0 0 0 0 0 0 0 0 0 6 13 23 26 29 48 52 74 77 81 77 81 87 81 65 71 68 55 45 29 16 10 26 29 13 10 13 13 10 13 6 0 3 0 0 3 3 0
0 0 0 0 0 0 0 0 0 0 3 6 6 13 19 32 39 52 74 81 84 68 74 81 74 71 68 52 39 42 32 26 16 26 48 48 26 16 19 13 10 6 3 0 0 3 3 0 0
0 0 0 0 0 0 0 0 3 3 6 3 10 10 19 19 23 52 65 71 65 68 65 74 87 74 58 52 39 45 48 42 35 48 58 61 68 52 35 23 26 10 6 10 6 3 3 3 3
0 0 0 0 0 0 0 0 10 6 6 6 13 16 16 29 32 45 58 65 65 55 61 77 77 90 81 71 58 61 71 61 65 74 68 81 77 65 48 29 29 13 19 19 26 3 0 0 0
0 0 0 0 0 0 3 3 13 10 10 10 13 16 26 29 29 32 48 61 58 61 68 77 84 77 87 87 77 77 77 77 84 87 71 71 68 65 52 35 26 29 26 19 13 6 0 0 0
0 0 0 0 3 3 3 6 23 26 29 19 16 13 13 26 32 26 32 48 52 55 61 61 87 81 87 81 87 77 81 77 74 77 71 68 65 65 52 45 23 23 19 16 6 3 0 0 0
0 0 0 0 0 10 10 10 29 32 23 16 16 6 10 16 23 26 26 32 42 48 52 52 68 74 84 81 84 81 71 71 58 55 48 45 35 42 39 29 23 19 13 6 3 0 0 0 0
0 0 0 3 3 6 10 10 19 16 10 10 6 10 13 19 10 19 26 23 23 23 32 45 45 48 58 65 74 71 71 61 52 45 39 35 35 32 23 23 19 16 10 10 3 0 3 0 0
0 0 0 3 0 0 0 0 19 10 13 10 13 13 13 10 10 10 16 16 16 19 23 29 35 35 39 42 45 58 65 55 42 32 26 23 13 13 10 10 10 10 10 6 6 0 3 3 0
0 0 0 0 0 0 0 0 10 13 16 10 13 13 3 6 3 6 10 13 13 16 16 19 23 26 26 35 39 39 35 39 26 29 23 10 10 10 10 10 10 10 6 3 3 3 3 3 3
0 0 0 0 0 0 0 0 0 13 16 13 13 10 10 10 10 10 6 6 6 6 10 13 23 23 19 16 16 19 23 23 26 16 13 6 6 6 6 6 3 3 3 3 3 3 3 3 3
0 0 0 0 0 0 0 0 3 10 16 10 13 10 6 6 6 6 6 6 6 6 10 10 13 13 10 10 10 10 10 10 10 10 6 3 0 0 0 0 0 0 0 0 0 0 0 0 0
0 0 0 0 0 0 0 0 19 13 13 13 6 6 6 6 6 6 6 6 6 6 3 3 10 6 6 6 6 6 6 10 6 3 0 0 0 0 0 0 0 0 0 0 0 0 0 0 0
0 0 0 0 0 0 0 6 16 13 13 10 6 3 3 6 6 6 3 3 3 3 3 3 0 0 0 0 0 0 0 0 0 0 0 0 0 0 0 0 0 0 0 0 0 0 0 0 0
0 0 0 0 0 0 0 0 3 6 6 6 6 6 3 3 3 3 3 0 0 0 0 0 0 0 0 0 0 0 0 0 0 0 0 0 0 0 0 0 0 0 0 0 0 0 0 0 0
0 0 0 0 0 0 0 0 0 3 0 0 3 0 0 0 0 0 0 0 0 0 0 0 0 0 0 0 0 0 0 0 0 0 0 0 0 0 0 0 0 0 0 0 0 0 0 0 0
0 0 0 0 0 0 0 0 0 0 0 0 0 0 0 0 0 0 0 0 0 0 0 0 0 0 0 0 0 0 0 0 0 0 0 0 0 0 0 0 0 0 0 0 0 0 0 0 0

GEFSSGP_con_cape1000_066.txt.gz
Probability
0 0 0 0 0 0 0 0 0 0 0 0 0 0 3 3 6 6 6 26 58 87 100 100 100 100 100 100 100 100 100 100 100 100 100 100 100 100 100 100 100 100 100 100 100 100 100 100 100
0 0 0 0 0 0 0 0 0 0 0 0 0 0 3 10 16 29 48 55 74 90 100 100 100 100 100 100 100 100 100 100 100 100 100 100 100 100 100 100 100 100 100 100 100 100 100 100 100
0 0 0 0 0 0 0 0 0 0 0 0 3 10 23 26 29 48 61 71 74 94 100 100 100 100 100 100 100 100 100 100 100 100 100 100 100 100 100 100 100 100 100 100 100 100 100 100 100
0 0 0 0 0 0 0 0 0 0 0 0 3 23 23 29 32 48 71 71 71 97 100 100 100 100 100 100 100 100 100 100 100 100 100 100 100 100 100 100 100 100 100 100 100 100 100 100 100
0 0 0 0 0 0 0 0 0 0 0 0 6 29 35 42 55 65 65 68 77 90 94 100 100 100 100 100 100 100 100 100 100 100 100 100 100 100 100 100 100 100 100 100 100 100 100 97 97
0 0 0 0 0 0 0 0 0 0 0 0 6 32 35 52 68 71 74 71 77 90 97 97 100 100 100 100 100 100 100 100 100 100 100 100 100 100 100 100 100 100 100 97 97 97 90 90 90
0 0 0 0 0 0 0 0 0 0 0 0 6 19 32 48 58 77 81 74 84 90 97 97 97 100 100 100 100 100 100 100 100 100 100 100 100 100 100 100 97 94 94 94 84 84 74 71 74
0 0 0 0 0 0 0 0 0 0 0 0 16 10 19 35 71 77 81 81 84 90 97 97 97 100 100 100 100 100 100 100 100 100 100 100 100 100 100 97 94 87 84 74 68 65 61 61 39
0 0 0 0 0 0 0 0 0 0 0 0 3 19 23 45 68 81 81 81 87 90 97 97 100 100 100 100 100 100 100 100 100 100 100 100 100 97 97 90 90 84 81 65 65 58 52 39 26
0 0 0 0 0 0 0 0 0 0 0 0 6 23 35 65 61 61 61 71 81 87 97 100 100 100 100 100 100 100 100 100 100 100 100 100 87 81 90 90 90 84 81 74 68 61 42 29 10
0 0 0 0 0 0 0 0 0 0 0 0 0 19 35 48 52 55 58 71 71 87 94 100 100 100 100 100 100 100 100 100 100 100 100 74 55 55 77 55 77 77 77 68 58 58 39 26 10
0 0 0 0 0 0 0 0 0 0 0 0 0 13 35 52 52 61 68 74 77 87 97 100 100 100 100 100 100 100 100 100 97 97 84 55 35 26 26 19 29 52 52 48 19 16 23 16 6
0 0 0 0 0 0 0 0 0 0 0 0 3 13 29 42 52 52 58 71 84 87 94 97 100 100 100 100 100 100 97 94 84 81 74 32 16 13 10 10 13 16 16 16 13 10 6 10 3
0 0 0 0 0 0 0 0 0 0 3 0 6 10 19 29 39 39 52 71 81 87 90 90 100 97 97 94 94 94 84 71 71 65 65 26 13 10 6 6 6 10 13 16 13 13 6 3 6
0 0 0 0 0 0 0 0 3 3 3 3 13 16 16 26 32 42 48 68 71 77 94 90 97 97 94 94 87 84 65 58 45 48 42 23 10 3 3 6 6 13 16 13 10 6 0 0 0
0 0 0 0 0 0 0 0 3 3 6 6 10 13 29 26 29 32 52 55 68 65 74 81 90 90 87 81 71 48 45 29 35 16 13 13 10 3 0 6 10 13 13 10 10 3 0 0 0
0 0 0 0 0 0 0 0 3 10 10 6 6 13 16 26 32 26 42 39 58 58 61 74 71 68 65 55 42 32 26 26 19 6 6 16 23 10 3 3 10 13 10 10 10 0 0 0 0
0 0 0 0 0 3 3 10 19 19 16 13 10 16 16 16 13 19 29 29 39 52 52 48 39 45 45 39 29 13 13 13 10 3 3 13 23 35 13 13 6 3 10 3 0 0 0 0 0
0 0 0 0 0 3 10 10 26 29 16 6 16 19 19 19 13 23 19 26 42 45 42 48 35 32 29 32 29 19 16 10 3 3 6 13 16 19 23 16 6 3 3 6 3 0 0 3 0
0 0 0 0 3 3 16 23 26 32 16 13 10 10 13 10 16 16 16 16 23 32 29 32 29 32 32 32 29 19 10 10 6 13 6 13 16 19 26 6 3 0 3 0 0 0 0 0 0
0 0 0 0 6 6 10 13 26 23 16 13 10 10 6 3 6 16 13 10 19 23 23 19 16 23 19 23 13 10 6 3 3 6 3 6 10 13 13 10 10 0 0 3 0 0 0 0 0
0 0 0 0 0 0 0 0 6 6 16 13 6 6 6 6 6 6 10 16 13 13 13 16 13 10 13 13 13 3 3 3 3 3 3 0 0 0 3 3 6 6 6 6 3 0 0 0 0
0 0 0 0 0 0 0 0 3 3 10 6 3 3 3 3 3 3 3 6 13 13 13 13 13 10 13 13 10 6 3 3 0 0 0 0 0 0 0 0 0 0 0 0 6 6 0 0 0
0 0 0 0 0 0 0 0 3 6 3 6 3 10 10 6 6 3 3 6 6 16 16 13 13 13 6 3 6 3 3 3 0 0 0 0 0 0 0 0 0 0 0 0 0 0 0 0 0
0 0 0 0 0 0 0 0 6 16 19 16 13 13 6 6 6 6 6 6 6 6 6 13 6 6 6 6 6 3 3 0 0 3 0 0 0 0 0 0 0 0 0 0 0 0 0 0 0
0 0 0 0 0 0 0 0 16 19 6 10 6 6 6 6 6 6 6 6 3 3 3 3 3 6 6 3 3 0 0 0 0 0 0 0 0 0 0 0 0 0 0 0 0 0 0 0 0
0 0 0 0 0 0 0 0 16 13 10 6 3 3 3 3 3 3 3 3 3 3 3 3 0 0 0 0 0 0 0 0 0 0 0 0 0 0 0 0 0 0 0 0 0 0 0 0 0
0 0 0 0 0 0 0 0 0 10 10 6 3 0 3 3 3 3 3 3 3 3 0 0 0 0 0 0 0 0 0 0 0 0 0 0 0 0 0 0 0 0 0 0 0 0 0 0 0
0 0 0 0 0 0 0 0 0 0 3 3 0 0 0 0 0 0 0 0 0 0 0 0 0 0 0 0 0 0 0 0 0 0 0 0 0 0 0 0 0 0 0 0 0 0 0 0 0
0 0 0 0 0 0 0 0 0 0 0 0 0 0 0 0 0 0 0 0 0 0 0 0 0 0 0 0 0 0 0 0 0 0 0 0 0 0 0 0 0 0 0 0 0 0 0 0 0

GEFSSGP_con_cape1000_072.txt.gz
Probability
0 0 0 0 0 0 0 0 0 0 0 0 0 0 0 0 6 32 81 87 81 87 90 100 100 100 100 100 100 100 100 100 100 100 100 100 100 100 100 100 100 100 100 100 100 100 100 100 100
0 0 0 0 0 0 0 0 0 0 0 0 0 0 3 13 39 68 81 87 84 90 90 94 100 100 100 100 100 100 100 100 100 100 100 100 100 100 100 100 100 100 100 100 100 100 100 100 100
0 0 0 0 0 0 0 0 0 0 0 0 0 0 6 19 48 71 87 94 90 87 87 100 100 100 100 100 100 100 100 100 100 100 100 100 100 100 100 100 100 100 100 100 100 100 97 97 100
0 0 0 0 0 0 0 0 0 0 0 0 0 10 16 48 71 71 97 94 90 87 87 100 100 100 100 100 100 100 100 100 100 100 100 100 100 100 100 100 100 100 100 100 100 100 100 100 100
0 0 0 0 0 0 0 0 0 0 0 0 0 3 16 55 84 97 97 94 94 90 90 100 100 100 100 100 100 100 100 100 100 100 100 100 100 100 100 100 100 100 100 100 97 100 100 100 97
0 0 0 0 0 0 0 0 0 0 0 0 3 3 23 68 90 97 97 94 94 94 97 100 100 100 100 100 100 100 100 100 100 100 100 100 100 100 100 100 100 100 100 100 100 100 97 90 94
0 0 0 0 0 0 0 0 0 0 0 0 3 3 32 81 90 97 97 100 97 94 97 100 100 100 100 100 100 100 100 100 100 100 100 100 100 100 100 100 100 100 100 100 94 87 87 84 81
0 0 0 0 0 0 0 0 0 0 0 0 3 3 16 87 97 100 100 100 97 97 100 100 100 100 100 100 100 100 100 100 100 100 100 100 100 100 100 100 100 97 90 90 77 74 68 65 48
0 0 0 0 0 0 0 0 0 0 0 3 0 6 35 71 97 100 100 100 100 97 100 100 100 100 97 97 97 100 100 100 97 100 100 100 94 94 97 87 97 90 87 74 71 65 65 45 26
0 0 0 0 0 0 0 0 0 0 0 0 0 10 42 65 90 97 100 97 100 97 97 100 97 100 97 97 97 97 94 97 97 97 100 97 90 84 65 87 84 84 71 68 68 68 48 19 32
0 0 0 0 0 0 0 0 0 0 0 0 0 6 26 68 81 97 97 100 97 100 97 94 100 97 97 97 97 97 94 97 97 97 100 100 90 87 68 81 84 90 81 68 81 68 29 13 13
0 0 0 0 0 0 0 0 0 0 0 0 0 3 19 45 71 84 94 100 100 100 97 97 97 97 97 97 97 97 100 97 97 100 100 100 94 84 74 87 58 77 81 77 55 58 23 19 13
0 0 0 0 0 0 0 0 0 0 0 0 3 3 6 42 55 81 84 90 97 100 97 97 97 90 90 90 94 97 100 100 100 97 97 100 94 87 81 81 87 68 48 61 65 48 35 32 32
0 0 0 0 0 0 0 0 0 0 0 0 3 3 13 26 55 74 81 94 94 94 94 94 94 97 97 90 90 100 97 97 97 97 94 97 94 90 90 90 97 84 65 71 71 65 65 65 52
0 0 0 0 0 0 0 0 0 0 0 0 3 16 29 35 48 74 84 90 97 87 90 94 87 94 90 87 90 90 94 90 97 97 94 94 100 100 100 97 100 87 87 94 94 90 81 84 81
0 0 0 0 0 0 0 0 3 3 3 3 13 23 35 45 55 74 77 81 81 84 94 90 87 87 90 90 90 87 84 94 97 97 87 94 97 97 100 97 90 90 97 97 97 90 81 84 81
0 0 0 0 0 0 0 0 3 6 10 10 23 29 32 42 52 61 68 77 84 87 90 87 84 84 87 84 87 87 84 90 94 94 90 94 97 97 100 97 94 90 90 90 84 77 81 74 77
0 0 0 0 0 0 0 0 6 19 16 16 19 29 32 32 48 48 55 65 74 81 81 81 81 77 74 77 81 77 81 90 90 87 94 94 97 97 90 90 84 87 90 90 87 90 87 77 77
0 0 0 0 0 0 3 3 23 26 29 32 35 42 32 35 32 35 48 52 61 74 81 77 77 81 77 77 77 81 77 77 81 74 74 84 84 84 87 81 84 87 87 81 71 74 65 68 58
0 0 0 0 0 0 6 19 26 32 32 35 32 23 29 29 26 26 29 32 39 48 58 61 58 65 68 74 81 81 74 71 61 65 68 65 71 81 81 87 84 77 71 65 61 68 58 48 42
0 0 0 0 0 3 6 13 35 39 48 39 29 16 23 13 6 13 16 23 29 26 32 42 52 55 55 61 68 65 58 48 42 48 42 39 42 58 55 65 55 58 52 42 42 48 48 52 32
0 0 0 0 0 0 0 0 23 48 55 35 26 29 13 13 13 13 16 26 23 23 29 32 39 45 45 55 58 55 42 42 32 26 16 16 16 16 23 29 32 39 39 35 29 32 29 29 29
0 0 0 0 0 0 0 0 13 39 45 39 39 16 13 10 10 13 13 13 19 16 26 29 29 32 35 48 45 39 32 26 10 10 13 10 3 3 6 10 10 10 10 6 6 10 13 16 16
0 0 0 0 0 0 0 0 0 35 35 32 29 13 16 13 10 6 6 6 13 16 19 23 29 29 26 29 26 26 23 10 6 6 3 3 3 3 3 3 6 6 6 3 3 3 3 3 0
0 0 0 0 0 0 0 0 6 32 35 32 26 16 16 13 10 13 13 3 6 10 16 19 23 23 16 19 23 16 6 3 3 3 3 3 3 6 3 0 3 3 0 0 0 0 0 0 0
0 0 0 0 0 0 0 0 39 42 39 29 23 16 16 16 10 13 13 10 3 10 13 13 16 13 10 10 10 6 6 6 3 3 0 0 0 0 0 0 0 0 0 0 0 0 0 0 0
0 0 0 0 0 0 0 10 39 32 26 26 16 13 10 10 10 10 6 6 10 10 10 10 6 13 10 10 6 3 3 3 3 3 0 0 0 0 0 0 0 0 0 0 0 0 0 0 0
0 0 0 0 0 0 0 0 3 26 19 13 10 6 10 10 10 6 6 6 6 6 6 6 3 6 3 3 3 3 3 3 0 0 0 0 0 0 0 0 0 0 0 0 0 0 0 0 0
0 0 0 0 0 0 0 0 6 39 19 13 10 6 6 10 3 3 3 3 3 6 3 3 0 0 3 3 3 0 0 0 0 0 0 0 0 0 0 0 0 0 0 0 0 0 0 0 0
0 0 0 0 0 0 0 6 26 42 29 13 6 3 3 6 3 3 3 3 3 3 3 3 0 0 0 0 0 0 0 0 0 0 0 0 0 0 0 0 0 0 0 0 0 0 0 0 0

GEFSSGP_con_cape1000_078.txt.gz
Probability
0 0 0 0 0 0 0 0 0 0 0 0 0 0 0 3 6 61 74 84 97 100 100 100 100 100 100 100 100 100 100 100 100 100 100 100 100 100 100 100 100 100 100 100 100 100 100 100 100
0 0 0 0 0 0 0 0 0 0 0 0 0 0 0 6 26 61 90 97 97 100 100 100 100 100 100 100 100 100 100 100 100 100 100 100 100 100 100 100 100 100 100 100 100 100 100 100 100
0 0 0 0 0 0 0 0 0 0 0 0 0 0 0 3 19 71 100 97 94 100 100 100 100 100 100 100 100 100 100 100 100 100 100 100 100 100 100 100 100 100 100 100 100 100 100 100 100
0 0 0 0 0 0 0 0 0 0 0 0 0 0 0 10 26 77 97 97 94 97 100 100 100 100 100 100 100 100 100 100 100 100 100 100 100 100 100 100 100 100 100 100 100 100 100 100 100
0 0 0 0 0 0 0 0 0 0 0 0 0 0 13 26 58 87 90 97 97 97 100 100 100 100 100 100 100 100 100 100 100 100 100 100 100 100 100 100 100 100 97 97 97 100 100 97 97
0 0 0 0 0 0 0 0 0 0 0 0 0 0 19 48 68 74 90 94 94 100 100 100 100 100 100 100 100 100 100 100 100 100 100 100 100 100 100 100 100 100 97 97 97 97 94 94 94
0 0 0 0 0 0 0 0 0 0 0 0 0 0 26 77 84 84 94 94 97 100 100 100 100 100 100 100 100 100 100 100 100 100 100 100 100 100 100 100 100 100 100 97 94 87 90 94 94
0 0 0 0 0 0 0 0 0 0 0 0 0 0 39 87 87 90 94 97 97 100 100 100 100 100 100 100 100 100 100 100 100 100 100 100 100 100 100 100 100 97 97 97 87 87 87 87 81
0 0 0 0 0 0 0 0 0 0 0 0 0 10 58 84 77 90 94 97 97 100 100 100 97 100 100 100 100 100 100 100 100 100 100 100 100 100 100 100 100 94 94 87 84 84 84 74 74
0 0 0 0 0 0 0 0 0 0 0 0 0 13 48 65 74 84 90 97 97 97 97 100 97 97 97 97 100 100 100 100 100 100 100 100 100 100 90 100 100 97 90 90 87 84 74 61 39
0 0 0 0 0 0 0 0 0 0 0 0 0 10 16 55 61 74 87 90 97 97 97 97 97 97 90 94 97 100 97 100 100 100 100 100 100 100 97 94 94 94 94 77 87 77 58 23 32
0 0 0 0 0 0 0 0 0 0 0 0 0 0 10 23 45 68 77 87 97 97 94 94 94 97 90 90 94 97 94 97 90 100 100 100 100 100 90 90 74 87 81 87 81 81 35 48 48
0 0 0 0 0 0 0 0 0 0 0 0 0 3 13 19 29 48 77 87 97 97 100 100 90 94 94 90 94 90 94 87 90 90 94 97 94 94 90 87 87 74 77 87 90 81 68 74 55
0 0 0 0 0 0 0 0 0 0 0 0 6 10 16 26 32 52 74 90 97 94 94 97 94 87 87 84 84 87 87 94 90 87 90 90 94 94 97 94 94 97 94 77 90 81 94 81 77
0 0 0 0 0 0 0 0 0 0 0 0 10 19 19 29 35 48 81 90 90 90 87 90 84 87 87 84 84 87 84 90 84 90 87 87 90 90 90 94 97 94 90 90 90 81 90 87 77
0 0 0 0 0 0 0 0 0 0 0 10 16 23 23 32 39 52 74 90 90 90 87 84 77 77 87 77 81 77 71 74 68 71 81 84 77 74 84 84 87 94 84 87 90 84 90 90 94
0 0 0 0 0 0 0 0 0 0 6 10 19 26 29 32 45 48 58 77 87 84 84 84 81 77 77 74 74 65 65 65 65 58 71 74 65 68 71 81 84 90 87 84 81 84 90 90 87
0 0 0 0 0 0 0 0 0 6 13 13 29 32 32 29 29 45 55 61 68 74 77 81 74 71 68 61 61 55 58 55 45 45 55 58 58 55 58 68 71 74 77 74 77 84 81 77 71
0 0 0 0 0 0 0 0 3 3 13 23 23 35 32 32 39 39 42 45 58 65 68 65 68 68 71 65 55 55 58 52 45 42 45 45 55 55 58 52 68 68 74 74 68 71 71 74 71
0 0 0 0 0 0 0 0 3 6 3 16 19 29 29 32 29 26 26 32 29 45 52 58 55 61 65 65 55 52 52 45 35 29 29 35 42 45 55 65 68 68 68 71 71 71 65 58 58
0 0 0 0 0 0 0 0 3 3 10 26 23 26 29 19 19 19 23 19 26 26 32 35 48 52 52 55 61 39 42 39 32 29 23 29 29 29 39 48 52 61 55 52 52 58 52 45 42
0 0 0 0 0 0 0 0 0 0 13 13 13 19 23 19 16 6 6 13 16 19 19 29 29 45 45 45 55 42 39 32 32 26 23 19 29 29 29 29 32 35 29 29 23 29 35 32 29
0 0 0 0 0 0 0 0 0 6 6 10 16 19 19 6 10 10 10 13 10 16 19 23 29 29 29 42 42 39 32 23 26 13 10 19 16 13 13 19 19 23 23 16 16 16 19 16 13
0 0 0 0 0 0 0 0 0 3 13 6 10 16 13 10 10 10 6 10 6 6 10 19 26 26 26 26 29 23 16 13 13 13 10 10 10 6 6 3 10 6 13 10 6 3 3 3 3
0 0 0 0 0 0 0 0 0 0 10 10 19 16 13 16 16 13 13 10 6 6 6 16 19 23 23 23 16 16 10 10 6 6 10 6 6 6 3 0 0 0 3 3 3 3 0 0 0
0 0 0 0 0 0 0 0 3 3 16 16 19 6 10 13 10 10 10 10 10 3 10 10 13 13 6 6 10 10 6 6 6 6 3 3 3 3 0 0 0 0 0 0 0 0 0 0 0
0 0 0 0 0 0 0 0 0 6 13 19 6 3 6 10 10 10 10 10 3 6 6 6 6 3 6 6 3 3 3 3 3 3 3 3 0 0 0 0 0 0 0 0 0 0 0 0 0
0 0 0 0 0 0 0 0 0 10 6 10 6 6 6 10 10 10 10 10 6 6 6 6 3 3 0 0 3 3 3 3 3 3 3 0 0 0 0 0 0 0 0 0 0 0 0 0 0
0 0 0 0 0 0 0 0 0 10 10 13 6 3 6 10 10 10 10 3 3 3 0 0 0 0 3 3 3 3 3 3 3 0 0 0 0 0 0 0 0 0 0 0 0 0 0 0 0
0 0 0 0 0 0 0 0 3 10 16 6 6 6 10 10 10 6 3 3 0 0 0 0 0 0 0 0 3 3 0 0 0 0 0 0 0 0 0 0 0 0 0 0 0 0 0 0 0

GEFSSGP_con_cape1000_084.txt.gz
Probability
0 0 0 0 0 0 0 0 0 0 0 0 0 0 10 3 0 3 29 48 68 90 100 100 100 100 100 100 100 100 100 100 100 100 100 100 100 100 100 100 100 100 100 100 100 100 100 100 100
0 0 0 0 0 0 0 0 0 0 0 0 0 6 26 52 55 42 45 65 81 97 100 100 100 100 100 100 100 100 100 100 100 100 100 100 100 100 100 100 100 100 100 100 100 100 100 100 100
0 0 0 0 0 0 0 0 0 0 0 0 0 3 26 61 68 45 48 68 90 94 100 100 100 100 100 100 100 100 100 100 100 100 100 100 100 100 100 100 100 100 100 100 100 100 100 100 100
0 0 0 0 0 0 0 0 0 0 0 0 0 10 29 58 68 61 74 81 90 94 97 100 100 100 100 100 100 100 100 100 100 100 100 100 100 100 100 100 100 100 100 100 100 100 100 97 97
0 0 0 0 0 0 0 0 0 0 0 0 3 23 48 74 81 84 94 94 90 94 94 100 100 100 100 100 100 100 100 100 100 100 100 100 100 100 100 100 100 100 100 100 100 100 97 97 97
0 0 0 0 0 0 0 0 0 0 0 3 6 29 61 77 74 90 94 97 97 94 94 97 100 100 100 100 100 100 100 100 100 100 100 100 100 100 100 100 100 100 100 100 100 100 97 97 90
0 0 0 0 0 0 0 0 0 0 0 3 6 35 68 77 81 84 87 97 94 90 94 94 94 97 100 100 100 100 100 100 100 100 100 100 100 100 100 100 100 100 97 97 100 97 97 94 90
0 0 0 0 0 0 0 0 0 0 0 3 6 42 65 77 77 81 84 97 94 94 94 94 94 94 94 100 100 100 100 100 100 100 100 100 100 100 100 100 100 100 100 97 94 94 97 94 90
0 0 0 0 0 0 0 0 0 0 0 0 6 42 68 74 77 74 81 84 90 94 94 94 94 94 94 97 100 100 100 100 100 100 100 100 100 100 100 100 100 100 100 100 97 100 97 87 87
0 0 0 0 0 0 0 0 0 0 3 6 39 61 71 71 74 61 74 84 90 87 87 90 94 94 94 97 100 100 100 100 100 100 100 100 97 97 100 100 100 100 100 100 97 94 87 84 26
0 0 0 0 0 0 0 0 0 0 6 6 32 55 71 68 65 58 65 68 77 81 81 84 87 87 90 94 100 100 100 100 97 97 100 97 90 87 94 94 97 97 97 84 84 87 61 39 10
0 0 0 0 0 0 0 0 3 3 3 10 16 45 52 61 58 65 65 71 68 68 71 71 77 84 81 81 90 94 94 90 94 97 97 90 84 77 65 74 81 71 68 48 45 35 23 13 3
0 0 0 0 0 0 0 0 0 3 10 10 16 29 52 55 61 61 68 65 61 68 68 65 65 65 65 77 77 81 81 90 87 90 90 77 61 68 52 58 61 58 35 23 19 16 10 3 0
0 0 0 0 0 0 0 0 0 3 6 6 13 29 35 52 58 65 65 68 65 61 55 55 58 58 58 68 71 74 74 74 71 77 77 68 42 32 42 39 39 32 29 19 6 3 3 0 0
0 0 0 0 0 0 0 0 0 3 6 10 19 26 32 39 45 52 55 65 61 58 52 48 45 42 48 58 61 61 61 65 48 58 61 39 23 16 16 16 13 16 6 0 0 3 3 0 0
0 0 0 0 0 0 0 3 6 3 6 10 23 23 26 26 26 42 42 45 58 48 42 52 55 48 45 45 48 42 45 42 29 35 39 26 13 10 6 6 13 0 0 0 0 0 0 0 0
0 0 0 0 0 0 0 3 6 3 13 19 19 23 32 29 26 29 35 32 29 29 26 35 35 42 39 35 35 35 32 32 23 32 29 26 26 13 3 6 3 0 0 0 0 0 0 0 0
0 0 0 0 0 0 0 6 3 6 6 16 23 10 19 19 13 13 10 16 26 26 26 32 29 29 29 32 29 29 23 16 19 16 19 19 23 16 3 3 0 0 0 0 0 0 0 0 0
0 0 0 0 0 0 3 3 0 6 6 13 16 13 6 6 3 0 3 3 10 10 16 23 23 29 29 32 26 23 13 13 13 13 13 16 10 10 6 3 3 0 0 3 0 0 0 0 0
0 0 0 0 0 0 0 0 0 6 13 19 16 6 3 3 0 3 3 3 10 10 13 13 16 19 19 23 19 19 13 13 13 6 6 13 10 6 6 6 6 3 0 0 0 0 0 0 0
0 0 0 0 0 0 0 0 3 3 10 6 6 6 6 3 0 0 0 3 3 3 6 13 10 13 13 19 19 16 16 16 10 10 6 10 6 6 6 10 6 3 3 0 0 0 0 0 0
0 0 0 0 0 0 0 0 0 3 6 3 0 0 0 0 3 3 3 3 3 3 3 3 3 10 13 16 13 19 13 10 6 3 3 0 0 0 0 0 0 0 0 0 0 0 0 0 0
0 0 0 0 0 0 0 0 0 0 0 3 0 0 0 0 0 0 0 3 3 0 0 3 3 3 6 10 10 10 10 6 3 3 0 0 0 0 0 0 0 0 0 0 0 0 0 0 0
0 0 0 0 0 0 0 0 0 0 0 0 0 0 3 0 0 0 3 3 3 3 3 6 6 3 3 3 10 10 10 3 0 0 0 0 0 0 0 0 0 0 0 0 0 0 0 0 0
0 0 0 0 0 0 0 0 0 0 0 0 0 0 0 0 0 0 0 0 0 0 3 6 3 3 3 3 6 6 3 0 0 0 0 0 0 0 0 0 0 0 0 0 0 0 0 0 0
0 0 0 0 0 0 0 0 0 0 0 0 0 0 0 0 0 0 0 0 0 3 3 3 3 3 3 0 0 0 0 0 0 0 0 0 0 0 0 0 0 0 0 0 0 0 0 0 0
0 0 0 0 0 0 0 0 0 0 0 0 0 0 0 0 0 0 0 0 3 3 3 3 3 3 0 0 0 0 0 0 0 0 0 0 0 0 0 0 0 0 0 0 0 0 0 0 0
0 0 0 0 0 0 0 0 0 0 0 0 0 0 0 0 0 3 0 3 0 3 3 3 3 0 0 0 0 0 0 0 0 0 0 0 0 0 0 0 0 0 0 0 0 0 0 0 0
0 0 0 0 0 0 0 0 0 0 0 0 0 0 0 0 3 0 0 0 3 0 0 0 0 0 0 0 0 0 0 0 0 0 0 0 0 0 0 0 0 0 0 0 0 0 0 0 0
0 0 0 0 0 0 0 0 0 0 0 0 0 0 0 0 3 0 0 0 0 0 0 0 0 0 0 0 0 0 0 0 0 0 0 0 0 0 0 0 0 0 0 0 0 0 0 0 0

GEFSSGP_con_cape1000_090.txt.gz
Probability
0 0 0 0 0 0 0 0 0 0 0 0 0 0 3 6 6 0 3 35 61 97 100 100 100 100 100 100 100 100 100 100 100 100 100 100 100 100 100 100 100 100 100 100 100 100 100 100 100
0 0 0 0 0 0 0 0 0 0 0 0 3 3 10 23 19 26 42 58 87 97 100 100 100 100 100 100 100 100 100 100 100 100 100 100 100 100 100 100 100 100 100 100 100 100 100 100 100
0 0 0 0 0 0 0 0 0 0 0 0 6 16 39 35 52 52 48 81 90 100 100 100 100 100 100 100 100 100 100 100 100 100 100 100 100 100 100 100 100 100 100 100 100 100 100 100 100
0 0 0 0 0 0 0 0 0 0 0 0 3 29 58 68 61 55 65 87 90 97 97 100 100 100 100 100 100 100 100 100 100 100 100 100 100 100 100 100 100 100 100 100 100 100 100 100 100
0 0 0 0 0 0 0 0 0 0 0 0 16 42 55 68 55 68 87 84 90 97 94 100 100 100 100 100 100 100 100 100 100 100 100 100 100 100 100 100 100 100 100 100 100 100 100 100 100
0 0 0 0 0 0 0 0 0 0 0 3 19 42 58 77 74 81 87 87 94 97 97 100 100 100 100 100 100 100 100 100 100 100 100 100 100 100 100 100 100 100 100 100 100 100 97 100 100
0 0 0 0 0 0 0 0 0 0 3 3 19 58 65 81 87 90 90 84 90 94 97 100 100 100 100 100 100 100 100 100 100 100 100 100 100 100 100 100 100 100 100 100 100 97 97 97 90
0 0 0 0 0 0 0 0 0 3 3 6 26 48 61 77 94 87 87 87 90 90 90 94 94 97 97 100 100 100 100 100 100 100 100 100 100 100 100 100 100 100 100 100 100 100 94 90 87
0 0 0 0 0 0 0 0 0 3 6 19 42 61 74 81 90 87 90 87 94 94 94 94 94 94 94 97 100 100 100 100 100 100 100 100 100 100 100 100 100 100 100 100 100 100 94 90 87
0 0 0 0 0 0 0 0 0 0 6 16 48 71 77 84 84 87 87 84 87 87 90 87 87 90 90 97 97 100 100 100 100 100 100 100 100 100 100 100 100 100 100 100 100 100 90 84 58
0 0 0 0 0 0 0 0 0 0 0 13 35 65 71 71 71 74 87 81 81 81 81 81 81 87 87 90 90 94 97 97 100 100 100 97 97 100 100 100 100 100 100 94 90 90 81 58 26
0 0 0 0 0 0 0 0 3 6 3 13 32 58 74 74 74 71 68 71 74 81 77 74 77 74 77 81 77 81 84 84 87 90 97 94 90 90 90 90 94 94 87 74 71 68 58 42 16
0 0 0 0 0 0 0 6 6 16 16 19 42 48 61 71 71 65 65 68 61 68 74 74 68 65 65 68 74 77 77 77 81 81 90 90 90 87 87 81 81 81 77 65 42 45 39 32 13
0 0 0 0 0 0 3 3 6 16 23 29 42 48 52 55 58 61 55 55 55 52 55 58 58 55 55 65 65 71 71 74 74 81 84 81 84 84 77 81 77 71 65 58 35 32 35 23 13
0 0 0 0 0 0 3 3 6 10 19 23 39 45 42 39 42 42 52 42 42 48 42 52 55 55 52 52 58 65 65 65 65 65 61 71 71 68 65 65 58 68 55 48 26 16 13 6 3
0 0 0 0 0 0 0 3 6 16 19 26 23 39 32 35 32 32 35 39 45 39 42 45 48 45 42 45 48 52 45 48 48 52 48 58 58 52 48 48 48 42 35 35 19 13 10 10 3
0 0 0 0 0 0 0 3 6 16 16 16 16 16 16 13 16 13 10 23 26 42 39 39 39 39 42 39 35 39 39 39 45 42 42 45 45 45 35 39 32 29 19 16 10 3 6 6 0
0 0 0 0 0 0 3 6 10 13 13 10 10 10 6 10 6 6 6 13 13 19 23 26 23 32 29 29 32 35 32 32 32 23 32 32 32 32 26 26 16 3 10 10 0 0 0 0 0
0 0 0 0 0 0 0 6 10 13 10 10 6 6 6 3 6 3 3 10 6 6 16 19 19 13 23 23 29 32 35 19 16 16 16 16 23 23 19 16 6 0 3 3 3 0 0 0 0
0 0 0 0 0 0 0 6 10 10 13 13 10 3 3 3 0 0 0 0 0 3 10 10 10 10 13 19 19 16 13 6 10 10 10 13 10 10 10 6 3 0 0 0 0 0 0 0 0
0 0 0 0 0 0 0 0 6 3 10 10 6 3 3 3 0 0 0 0 0 0 3 3 10 10 13 10 10 6 6 0 0 0 0 0 6 6 3 0 0 0 0 0 0 0 0 0 0
0 0 0 0 0 0 0 0 0 0 3 3 3 3 3 0 0 0 0 0 0 0 0 0 3 3 6 10 10 10 10 6 0 0 0 0 0 3 3 0 0 0 0 0 0 0 0 0 0
0 0 0 0 0 0 0 0 0 0 3 0 3 3 0 0 0 0 0 0 0 0 0 0 3 3 3 6 6 6 6 3 0 0 0 0 0 0 0 0 0 0 0 0 0 0 0 0 0
0 0 0 0 0 0 0 0 0 0 0 0 0 0 0 0 0 0 0 0 0 3 3 3 0 3 3 3 3 3 0 3 0 0 0 0 0 0 0 0 0 0 0 0 0 0 0 0 0
0 0 0 0 0 0 0 0 0 0 0 0 0 0 0 0 0 0 0 0 0 0 6 3 3 3 3 0 0 0 0 3 0 0 0 0 0 0 0 0 0 0 0 0 0 0 0 0 0
0 0 0 0 0 0 0 0 0 0 0 0 0 0 0 0 0 0 0 0 0 0 3 3 3 3 0 0 0 0 0 0 0 0 0 0 0 0 0 0 0 0 0 0 0 0 0 0 0
0 0 0 0 0 0 0 0 0 0 0 0 0 0 0 0 0 0 0 0 0 0 3 3 3 0 0 0 0 0 0 0 0 0 0 0 0 0 0 0 0 0 0 0 0 0 0 0 0
0 0 0 0 0 0 0 0 0 0 0 0 0 0 0 0 0 0 0 0 0 0 0 0 0 0 0 0 0 0 0 0 0 0 0 0 0 0 0 0 0 0 0 0 0 0 0 0 0
0 0 0 0 0 0 0 0 0 0 0 0 0 0 0 0 0 0 0 0 0 0 0 0 0 0 0 0 0 0 0 0 0 0 0 0 0 0 0 0 0 0 0 0 0 0 0 0 0
0 0 0 0 0 0 0 0 0 0 0 0 0 0 0 0 0 0 0 0 0 0 0 0 0 0 0 0 0 0 0 0 0 0 0 0 0 0 0 0 0 0 0 0 0 0 0 0 0

GEFSSGP_con_cape1000_096.txt.gz
Probability
0 0 0 0 0 0 0 0 0 0 0 0 0 0 3 3 3 23 90 100 94 94 94 100 100 100 100 100 100 100 100 100 100 100 100 100 100 100 100 100 100 100 100 100 100 100 100 100 100
0 0 0 0 0 0 0 0 0 0 0 0 0 3 6 10 29 71 97 100 100 97 94 97 100 100 100 100 100 100 100 100 100 100 100 100 100 100 100 100 100 100 100 100 100 100 100 100 100
0 0 0 0 0 0 0 0 0 0 0 3 0 6 19 45 55 84 97 100 100 94 100 100 100 100 100 100 100 100 100 100 100 100 100 100 100 100 100 100 100 100 100 100 100 100 100 100 100
0 0 0 0 0 0 0 0 0 0 0 3 6 35 55 74 71 100 97 100 97 97 100 100 100 100 100 100 100 100 100 100 100 100 100 100 100 100 100 100 100 100 100 100 100 100 100 100 100
0 0 0 0 0 0 0 0 0 0 0 3 6 42 77 84 87 100 100 100 97 97 100 100 100 100 100 100 100 100 100 100 100 100 100 100 100 100 100 100 100 100 100 100 100 100 100 100 100
0 0 0 0 0 0 0 0 0 0 3 6 23 45 77 90 94 100 100 100 94 100 100 100 100 100 100 100 100 100 100 100 100 100 100 100 100 100 100 100 100 100 100 100 100 100 100 100 100
0 0 0 0 0 0 0 0 3 0 6 23 39 61 77 87 97 100 100 97 97 100 100 100 100 100 100 100 100 100 100 100 100 100 100 100 100 100 100 100 100 100 100 100 100 100 100 100 97
0 0 0 0 0 0 0 3 3 16 29 39 45 55 77 90 94 97 97 97 94 97 97 100 100 100 100 100 100 100 100 100 100 100 100 100 100 100 100 100 100 100 100 100 100 100 97 97 94
0 0 0 0 0 0 0 0 13 26 35 42 61 68 81 90 97 97 97 97 97 97 97 97 97 100 100 100 100 100 100 100 100 100 100 100 100 97 100 97 100 100 100 100 100 100 97 94 90
0 0 0 0 0 0 0 3 6 26 32 58 61 81 81 94 94 97 97 97 97 94 94 94 97 97 100 100 100 100 100 100 100 97 97 100 97 97 94 97 97 100 100 100 100 100 97 87 84
0 0 0 0 0 0 0 3 6 19 26 45 52 71 81 84 90 90 90 90 90 90 90 90 94 97 97 100 100 100 100 100 100 97 94 94 94 97 94 97 97 97 100 100 100 97 84 65 65
0 0 0 0 0 0 0 3 19 23 29 39 42 61 77 81 81 87 90 90 90 87 87 87 87 94 94 97 100 100 100 100 97 97 97 97 97 94 97 97 97 97 97 100 97 97 77 61 48
0 0 0 0 0 0 3 6 16 26 29 39 52 61 65 65 71 81 81 84 84 84 81 77 84 87 90 97 97 97 97 100 100 100 97 97 97 97 94 94 97 94 97 100 100 81 81 71 58
0 0 0 0 0 3 3 3 23 29 32 39 42 48 52 55 65 71 74 81 71 68 68 68 77 81 87 90 94 94 94 100 94 94 94 97 97 94 90 90 94 97 94 90 94 77 94 77 74
0 0 0 3 3 3 3 3 19 26 39 35 39 45 42 39 45 61 61 58 61 68 68 71 71 71 74 81 81 81 87 87 94 94 94 94 94 94 94 90 90 94 97 97 97 94 84 87 77
0 0 0 0 3 3 0 3 19 29 29 26 35 39 39 35 35 39 45 45 52 58 61 65 58 71 74 71 84 81 87 87 87 87 84 74 81 87 87 84 87 87 97 97 97 97 94 87 74
0 0 0 0 0 0 0 3 23 26 23 29 35 32 29 29 23 23 26 29 35 55 55 55 61 61 65 71 77 77 87 87 81 77 71 68 74 68 84 84 87 87 87 94 87 90 87 77 58
0 0 0 0 0 0 0 6 23 26 26 29 26 26 23 23 19 19 23 29 29 29 39 45 52 58 55 71 74 77 68 68 68 61 65 65 65 61 58 65 74 74 77 90 87 84 81 71 61
0 0 0 0 0 0 0 10 16 16 26 26 23 29 16 16 13 16 16 19 23 23 23 29 35 42 52 55 61 65 61 71 65 58 45 48 42 58 55 52 55 55 71 74 71 74 65 58 42
0 0 0 0 0 3 3 13 19 19 26 26 19 23 13 13 10 13 16 16 19 19 16 19 16 23 35 39 48 61 52 55 61 45 48 45 39 32 32 48 52 55 61 52 61 55 52 42 26
0 0 0 0 0 3 6 13 19 19 19 32 19 16 16 3 13 13 13 16 16 16 16 16 19 19 19 23 35 45 55 45 29 35 42 35 35 29 35 35 48 48 52 52 52 39 39 32 29
0 0 0 0 0 3 3 0 16 19 23 23 19 23 13 10 10 10 6 10 13 13 16 16 19 19 16 19 29 32 39 35 26 29 29 29 29 29 29 35 35 45 45 45 35 32 32 29 23
0 0 0 0 0 0 0 0 6 26 26 29 26 16 10 10 10 10 6 10 10 10 13 16 19 19 13 13 16 23 23 26 26 23 29 29 29 26 26 29 32 32 32 29 23 23 26 23 23
0 0 0 0 0 0 0 0 0 3 10 10 23 13 6 6 6 6 6 6 10 10 13 13 16 16 10 10 13 16 16 16 16 19 19 19 26 16 16 19 26 23 23 29 23 16 13 16 16
0 0 0 0 0 0 0 0 3 6 6 10 16 13 6 3 3 6 6 6 10 6 6 6 6 10 10 6 13 13 13 13 10 16 16 16 10 10 10 10 19 19 16 16 13 13 10 16 13
0 0 0 0 0 0 0 0 6 3 6 10 13 10 6 3 3 6 6 6 10 6 6 6 3 3 3 0 6 10 10 6 3 6 10 10 10 6 6 6 10 6 3 6 10 10 10 6 3
0 0 0 0 0 0 0 0 3 0 6 6 6 3 6 3 3 6 6 3 6 6 6 10 6 6 0 0 0 3 3 3 3 0 3 6 6 6 6 3 3 3 3 3 6 6 3 0 0
0 0 0 0 0 0 0 0 0 13 0 6 6 6 3 0 3 3 3 3 3 0 0 3 3 3 0 0 0 0 0 0 0 0 3 6 6 6 3 3 3 3 3 3 3 3 3 0 0
0 0 0 0 0 0 0 0 0 6 10 10 6 3 0 0 3 3 3 3 3 3 0 3 3 0 0 0 0 0 0 0 0 0 0 6 3 3 0 0 0 0 0 0 0 0 0 0 0
0 0 0 0 0 0 0 0 0 0 3 6 6 3 0 3 3 3 3 0 3 3 0 0 0 0 0 0 0 0 0 0 0 0 0 3 0 0 0 0 0 0 0 0 0 0 0 0 0

GEFSSGP_con_cape1000_102.txt.gz
Probability
0 0 0 0 0 0 0 0 0 0 0 0 0 3 6 10 29 65 77 77 94 90 100 100 100 100 100 100 100 100 100 100 100 100 100 100 100 100 100 100 100 100 100 100 100 100 100 100 100
0 0 0 0 0 0 0 0 0 0 0 0 0 6 6 16 39 71 87 87 94 94 97 100 100 100 100 100 100 100 100 100 100 100 100 100 100 100 100 100 100 100 100 100 100 100 100 100 100
0 0 0 0 0 0 0 0 0 0 0 0 3 6 23 32 58 84 94 87 90 90 97 100 100 100 100 100 100 100 100 100 100 100 100 100 100 100 100 100 100 100 100 100 100 100 100 100 100
0 0 0 0 0 0 0 0 0 0 0 3 10 32 48 48 77 90 90 87 77 90 97 100 100 100 100 100 100 100 100 100 100 100 100 100 100 100 100 100 100 100 100 100 100 100 100 100 100
0 0 0 0 0 0 0 0 0 0 3 3 16 42 52 68 84 87 87 87 87 94 94 100 100 100 100 100 100 100 100 100 100 100 100 100 100 100 100 100 100 100 100 100 100 100 100 100 100
0 0 0 0 0 0 0 0 0 0 3 6 29 39 48 65 84 90 90 87 87 90 94 100 100 100 100 100 100 100 100 100 100 100 100 100 100 100 100 100 100 100 100 100 100 100 100 100 100
0 0 0 0 0 0 0 0 0 0 0 16 29 42 45 61 84 94 94 94 94 90 97 97 100 100 100 100 100 100 100 100 100 100 100 100 100 97 97 97 100 100 100 100 100 100 100 100 100
0 0 0 0 0 0 0 0 0 0 19 19 32 26 48 74 90 94 97 94 90 84 87 94 97 100 100 100 100 100 100 100 100 100 100 97 97 97 97 97 97 97 100 97 100 100 100 97 94
0 0 0 0 0 0 0 0 10 19 19 23 35 39 48 68 87 94 94 90 94 97 90 87 94 94 94 100 100 100 100 100 100 100 97 97 97 97 97 97 97 97 97 94 97 100 97 97 94
0 0 0 0 0 0 0 0 6 23 23 26 45 39 55 65 84 90 87 87 97 97 97 94 90 94 87 94 100 100 100 97 100 97 97 97 94 94 94 97 97 97 97 97 94 97 97 94 94
0 0 0 0 0 0 0 10 16 23 19 23 35 42 48 68 87 81 77 77 84 84 84 87 90 90 100 100 100 100 100 97 97 94 94 94 94 94 94 94 94 94 94 94 97 100 90 87 97
0 0 0 0 0 0 0 16 19 26 23 23 26 39 39 68 71 74 65 71 74 71 74 81 90 90 97 97 100 100 97 97 97 97 97 94 90 87 90 90 94 90 94 90 94 94 87 81 81
0 0 0 0 0 0 3 13 23 29 19 23 32 39 55 61 55 61 68 61 71 71 74 81 81 90 97 97 97 100 97 94 97 97 97 97 90 84 90 87 84 87 87 87 90 90 77 81 77
0 0 0 0 0 0 6 10 16 16 23 29 35 42 39 39 55 61 65 65 65 65 81 81 84 94 94 97 97 97 100 94 97 90 94 94 94 94 97 87 87 90 87 81 84 84 84 84 87
0 0 0 0 0 0 0 10 13 16 19 26 32 35 29 32 32 29 35 42 48 65 74 84 90 90 94 94 94 94 94 94 97 94 90 90 97 97 90 87 87 84 81 74 74 81 77 87 84
0 0 0 0 0 0 0 10 13 16 19 29 35 29 29 23 16 26 39 39 42 58 61 68 71 81 87 87 94 94 94 94 94 97 97 94 94 94 97 87 81 81 74 68 74 68 74 74 65
0 0 0 0 0 0 0 10 10 10 23 39 39 32 26 19 19 23 26 32 35 45 58 61 68 68 74 81 87 90 94 94 94 94 87 87 87 84 81 87 81 71 71 68 58 58 61 58 48
0 0 0 0 0 0 0 3 10 6 13 26 29 32 29 16 19 16 26 29 35 45 52 55 58 68 65 74 84 87 90 90 87 87 87 81 77 81 81 81 77 74 68 68 61 58 55 45 45
0 0 0 0 0 0 0 3 6 6 16 26 29 29 23 23 16 16 23 32 32 42 48 52 55 55 61 71 74 77 81 81 77 77 71 71 65 68 71 74 77 74 65 58 55 52 42 39 29
0 0 0 0 0 0 0 3 6 16 19 26 29 23 29 16 19 19 19 23 29 29 35 39 35 39 48 55 71 77 77 71 71 71 61 58 55 58 45 61 58 71 58 55 45 45 45 32 32
0 0 0 0 0 0 0 3 13 16 16 26 26 23 23 19 13 13 19 16 16 16 29 23 29 35 39 48 61 71 74 71 65 61 58 52 45 42 39 42 45 48 48 52 42 39 35 26 23
0 0 0 0 0 0 3 3 3 13 23 16 23 26 16 13 13 13 16 16 13 13 19 26 23 26 29 32 39 55 65 55 48 45 39 45 35 35 35 29 32 35 35 39 35 35 32 29 26
0 0 0 0 0 0 0 0 0 6 6 23 23 16 16 10 13 16 16 10 10 13 16 19 26 19 19 23 23 26 32 35 29 29 39 39 32 32 26 29 29 29 29 32 32 32 32 29 26
0 0 0 0 0 0 0 0 0 6 6 19 26 19 19 13 13 13 13 13 13 10 13 13 13 16 16 16 16 19 19 23 26 26 19 23 26 23 23 19 19 23 29 29 29 29 26 26 26
0 0 0 0 0 0 0 0 3 3 3 16 26 16 19 13 13 16 10 13 13 13 13 13 13 13 13 10 10 19 19 19 19 13 13 13 16 13 19 19 23 23 26 23 26 26 29 16 16
0 0 0 0 0 0 0 0 0 3 10 23 29 26 16 13 13 16 6 6 10 13 13 13 13 13 13 10 13 13 16 13 10 13 10 13 13 16 16 16 19 19 16 16 16 19 10 10 16
0 0 0 0 0 0 0 0 6 16 13 19 19 16 13 16 16 10 10 6 13 10 10 13 13 10 13 10 10 6 3 3 3 3 3 6 6 10 13 10 10 10 10 10 10 6 6 6 3
0 0 0 0 0 0 0 0 0 6 13 16 26 19 16 16 13 10 6 6 6 6 6 6 10 10 6 3 3 0 0 0 3 3 3 3 3 6 6 6 6 6 6 3 3 6 6 6 3
0 0 0 0 0 0 0 0 0 10 10 23 26 23 16 13 10 10 6 3 6 6 6 6 6 6 3 0 0 0 0 0 0 0 0 0 0 0 6 6 6 3 3 3 3 3 3 3 0
0 0 0 0 0 0 0 0 0 6 16 19 23 16 16 6 6 3 6 6 0 0 3 3 3 0 3 0 0 0 0 0 0 0 0 0 0 0 0 0 0 0 0 0 0 0 0 0 0

GEFSSGP_con_cape1000_108.txt.gz
Probability
0 0 0 0 0 0 0 0 0 0 0 10 10 13 19 32 39 39 42 65 90 97 100 100 100 100 100 100 100 100 100 100 100 100 100 100 100 100 100 100 100 100 100 100 100 100 100 100 100
0 0 0 0 0 0 0 0 0 0 0 6 13 39 45 55 74 68 68 71 87 97 97 100 100 100 100 100 100 100 100 100 100 100 100 100 100 100 100 100 100 100 100 100 100 100 100 100 100
0 0 0 0 0 0 0 0 0 0 0 6 23 23 42 61 71 74 74 74 81 94 97 97 100 100 100 100 100 100 100 100 100 100 100 100 100 100 100 100 100 100 100 100 100 100 100 100 100
0 0 0 0 0 0 0 0 0 0 6 19 29 39 55 61 65 71 74 74 84 94 97 97 100 100 100 100 100 100 100 100 100 100 100 100 100 100 100 100 100 100 100 100 100 100 100 100 100
0 0 0 0 0 0 0 0 0 3 19 39 42 52 61 58 61 65 71 74 84 90 94 97 100 100 100 100 100 100 100 100 100 100 100 100 100 100 100 100 100 100 100 100 100 100 100 100 97
0 0 0 0 0 0 0 3 6 26 26 29 35 55 48 48 48 61 61 71 71 84 97 97 100 100 100 100 100 100 100 100 100 100 100 100 100 100 100 100 100 100 100 100 100 100 100 97 94
0 0 0 0 0 0 3 10 13 26 23 19 26 42 45 45 35 55 58 68 74 81 84 90 94 100 100 100 100 100 100 100 100 100 100 100 100 100 100 100 100 100 100 100 100 100 100 100 97
0 0 0 0 0 0 0 10 16 23 16 19 26 35 35 39 39 42 58 65 71 77 77 84 87 97 100 100 100 100 100 100 100 100 100 100 100 100 100 100 100 100 100 100 100 100 100 100 94
0 0 0 0 0 0 3 13 19 23 29 29 26 32 35 32 39 39 42 52 58 65 65 77 81 81 87 100 100 100 97 97 97 100 100 94 94 94 97 97 97 97 100 100 100 100 100 100 90
0 0 0 0 0 3 6 10 16 16 26 39 42 45 32 23 26 26 35 39 45 52 58 68 77 81 84 87 90 94 94 94 94 94 94 94 94 94 94 97 97 97 97 97 97 97 100 97 81
0 0 0 0 0 0 10 13 16 16 23 32 42 35 26 26 16 19 29 32 39 52 55 61 68 77 77 77 81 81 90 90 90 90 90 87 77 74 84 81 87 87 90 84 87 94 84 71 61
0 0 0 0 0 0 13 16 19 23 26 29 29 16 13 10 10 19 26 19 26 45 45 52 55 61 74 71 68 77 87 87 90 90 87 77 74 68 65 74 84 84 81 77 81 68 65 61 42
0 0 0 0 3 13 16 10 13 23 23 19 23 23 13 13 10 6 13 10 13 26 32 29 42 52 58 58 71 71 74 84 77 84 81 71 71 58 58 65 71 74 74 61 55 55 52 35 19
0 0 0 3 6 13 16 16 13 13 19 19 19 26 19 16 10 10 10 13 16 19 16 23 23 23 35 52 52 74 74 71 77 77 77 81 68 58 48 55 55 55 45 42 45 52 39 23 19
0 0 0 3 3 13 16 16 13 16 23 26 13 19 19 13 10 6 10 6 16 19 23 19 23 26 26 35 45 61 65 65 65 71 71 68 65 55 55 55 52 42 32 35 32 29 13 19 13
0 0 0 0 0 6 13 19 29 16 16 13 13 10 10 6 6 16 13 16 19 16 19 16 26 23 26 29 39 35 52 45 45 52 45 52 52 55 52 45 42 35 39 29 26 23 16 16 6
0 0 0 0 0 6 6 16 26 23 23 16 10 10 10 10 6 6 16 19 10 13 13 10 10 23 32 29 35 45 35 42 45 42 48 45 42 45 42 42 42 39 45 32 32 26 10 3 6
0 0 0 0 0 0 10 19 16 16 19 16 13 16 13 10 10 3 6 6 3 3 3 3 6 10 19 26 26 32 32 32 29 26 26 35 39 45 39 35 35 29 32 23 16 10 6 6 6
0 0 0 0 0 3 6 10 16 16 16 13 16 10 13 13 10 6 6 3 0 0 0 3 10 6 6 23 26 35 32 32 23 16 26 26 26 35 35 32 35 29 26 19 16 10 6 6 0
0 0 0 0 0 3 6 6 13 16 16 13 10 10 10 13 13 10 0 3 3 6 6 10 10 10 6 10 16 23 26 19 16 13 16 16 16 19 23 23 26 19 19 23 19 10 6 6 0
0 0 0 0 0 0 3 3 16 13 10 13 13 10 10 13 13 13 10 10 10 6 6 6 6 6 10 10 10 13 23 16 10 13 13 13 13 16 16 16 19 19 23 23 23 13 6 3 0
0 0 0 0 0 0 0 0 10 13 13 13 6 10 10 16 16 16 10 10 6 6 6 6 6 6 6 6 10 16 16 13 10 6 10 10 13 13 13 13 13 13 13 13 16 6 6 6 3
0 0 0 0 0 0 0 0 3 3 3 10 6 6 10 16 16 10 10 10 10 6 6 6 6 6 10 10 10 10 6 6 6 6 6 13 13 13 13 13 13 13 10 13 13 10 3 3 6
0 0 0 0 0 0 0 0 3 3 3 3 3 6 6 10 13 6 6 6 6 6 6 3 3 3 3 0 0 0 0 3 3 3 3 3 6 6 6 10 10 10 6 6 6 10 3 3 0
0 0 0 0 0 0 0 0 0 0 0 3 3 6 6 10 6 3 3 3 3 3 3 3 0 0 0 0 0 0 0 0 0 3 3 3 3 3 3 0 0 3 3 3 6 13 10 0 0
0 0 0 0 0 0 0 0 0 0 3 3 3 3 3 3 0 3 3 6 0 3 3 3 3 0 0 0 0 0 0 0 0 0 0 3 0 0 0 0 0 0 0 3 6 6 6 3 0
0 0 0 0 0 0 0 0 0 0 3 3 3 3 0 0 0 0 0 0 3 3 3 0 0 0 0 0 0 0 0 0 0 0 0 0 0 0 0 0 0 0 0 0 0 0 0 0 3
0 0 0 0 0 0 0 0 0 0 0 3 3 0 0 0 0 0 0 0 0 0 0 0 0 0 0 0 0 0 0 0 0 0 0 0 0 0 0 0 0 0 0 0 0 0 0 0 0
0 0 0 0 0 0 0 0 0 0 0 0 0 0 0 0 0 0 0 0 0 0 0 0 0 0 0 0 0 0 0 0 0 0 0 0 0 0 0 0 0 0 0 0 0 0 0 0 0
0 0 0 0 0 0 0 0 0 0 0 0 0 0 0 0 0 0 0 0 0 0 0 0 0 0 0 0 0 0 0 0 0 0 0 0 0 0 0 0 0 0 0 0 0 0 0 0 0

GEFSSGP_con_cape1000_114.txt.gz
Probability
0 0 0 0 0 0 0 0 0 0 6 6 6 16 23 29 16 10 29 61 77 87 100 100 100 100 100 100 100 100 100 100 100 100 100 100 100 100 100 100 100 100 100 100 100 100 100 100 97
0 0 0 0 0 0 0 0 0 0 6 16 23 52 61 74 61 55 58 74 84 94 90 97 100 100 100 100 100 100 100 100 100 100 100 100 100 100 100 100 100 100 100 100 100 100 100 100 97
0 0 0 0 0 0 0 0 0 0 13 16 32 48 61 61 65 71 71 87 90 94 94 97 100 100 100 100 100 100 100 100 100 100 100 100 100 100 100 100 100 100 100 100 100 100 100 100 100
0 0 0 0 0 0 0 0 0 0 13 32 39 52 52 58 68 68 90 90 90 90 97 97 100 100 100 100 100 100 100 100 100 100 100 100 100 100 100 100 100 100 100 100 100 100 100 100 100
0 0 0 0 0 0 0 0 0 0 23 35 45 52 58 65 61 71 77 87 87 94 94 97 100 100 100 100 100 100 100 100 100 100 100 100 100 100 100 100 100 100 100 100 100 100 100 100 100
0 0 0 0 0 0 0 0 6 10 16 23 35 48 55 55 65 65 68 77 81 90 87 94 97 100 100 100 100 100 100 100 100 100 100 100 100 100 100 100 100 100 100 100 100 100 100 100 100
0 0 0 0 0 0 0 3 6 16 23 26 26 42 58 55 61 55 61 68 71 71 81 84 94 94 100 100 100 100 100 100 100 100 100 100 100 100 100 100 100 100 100 100 100 100 100 97 94
0 0 0 0 0 0 0 10 13 23 23 23 39 48 58 52 48 48 58 65 65 65 68 71 74 90 97 100 100 100 100 100 100 100 100 100 100 100 100 100 100 100 100 100 100 100 97 100 97
0 0 0 0 0 0 0 13 19 23 32 39 45 58 52 48 48 55 52 55 61 61 61 61 65 71 74 94 100 100 100 100 100 100 100 97 97 97 97 100 100 100 100 100 100 100 100 97 97
0 0 0 0 0 0 3 13 16 26 39 45 48 48 52 48 39 45 45 48 48 52 52 58 61 65 68 71 81 87 90 94 97 97 94 90 94 94 97 97 97 97 97 94 94 94 97 90 74
0 0 0 0 0 0 10 13 16 29 32 45 52 48 45 39 39 39 42 45 45 45 55 55 58 65 61 68 77 81 81 81 87 87 87 87 84 84 87 87 87 84 90 84 87 90 81 74 68
0 0 0 0 0 6 10 13 29 32 39 35 35 39 32 35 35 32 26 26 26 26 32 35 48 55 55 61 68 77 81 81 81 81 81 77 77 71 71 71 77 81 81 77 81 74 71 74 68
0 0 0 0 3 3 13 23 26 29 32 19 19 26 29 29 26 23 19 19 19 23 16 19 32 32 39 45 52 68 71 77 74 74 74 74 77 61 52 52 52 65 68 74 65 61 55 55 48
0 0 3 3 3 10 10 10 16 19 23 26 23 26 19 13 16 16 10 10 13 10 16 16 19 23 23 32 39 45 52 52 58 55 61 68 61 55 45 45 52 58 55 52 45 42 45 35 32
0 0 0 0 3 6 6 10 16 19 29 26 29 23 13 16 16 13 10 10 6 6 10 10 13 13 16 16 26 29 45 45 42 39 52 52 48 48 42 42 45 48 45 32 45 32 32 29 19
0 0 0 0 0 0 0 3 13 23 29 29 23 19 16 13 13 13 10 6 10 10 6 10 16 6 10 10 13 13 16 23 32 32 32 35 35 35 26 32 32 32 32 29 26 26 29 26 13
0 0 0 0 0 0 3 3 23 23 29 23 19 16 16 13 16 10 6 10 3 3 3 3 3 0 0 6 3 10 10 13 19 16 16 35 29 26 26 26 26 29 29 19 26 19 16 19 13
0 0 0 3 3 6 3 6 23 19 19 19 23 13 10 13 10 6 6 3 3 3 3 0 0 0 0 0 3 10 13 10 6 6 10 10 13 29 23 26 23 26 23 13 13 19 6 6 3
0 0 0 0 0 6 6 13 16 16 16 13 13 13 16 6 3 3 3 3 3 3 3 0 0 0 0 3 3 16 10 10 6 6 10 13 13 13 13 19 13 13 16 13 6 3 6 3 0
0 0 0 3 0 0 6 6 10 16 13 6 13 13 16 13 6 6 3 6 6 3 0 0 0 3 3 3 3 6 3 3 3 3 6 6 6 6 13 13 13 10 13 13 3 3 0 0 0
0 0 0 3 0 3 6 6 10 19 6 16 16 13 13 10 6 6 10 10 6 3 3 3 3 3 3 3 3 6 6 6 3 3 3 3 10 10 10 10 10 6 6 6 0 0 0 0 0
0 0 0 0 0 0 0 3 6 16 19 10 16 13 10 10 10 10 13 10 3 3 3 3 3 3 0 3 6 6 6 6 6 6 3 3 3 3 6 6 6 6 3 6 3 0 0 3 3
0 0 0 0 0 0 0 0 0 23 16 13 10 19 10 6 13 13 13 6 6 3 3 0 0 0 0 0 0 0 0 3 3 3 0 3 3 3 3 3 3 6 6 6 0 0 0 0 3
0 0 0 0 0 0 0 0 3 10 13 16 6 13 10 13 16 16 10 6 3 0 0 0 0 0 0 0 0 0 0 0 0 0 0 0 0 0 3 3 3 0 0 0 0 3 3 0 0
0 0 0 0 0 0 0 0 0 0 0 0 0 10 10 10 6 3 3 0 3 3 3 3 3 3 0 0 0 0 0 0 0 0 0 0 0 0 0 0 0 0 0 0 0 0 0 3 3
0 0 0 0 0 0 0 0 0 0 0 0 3 6 6 6 0 3 0 0 0 0 0 0 0 0 0 0 0 0 0 0 0 0 0 0 0 0 0 0 0 0 0 0 0 0 0 0 0
0 0 0 0 0 0 0 0 0 0 0 3 3 3 3 0 0 0 0 0 0 0 0 0 0 0 0 0 0 0 0 0 0 0 0 0 0 0 0 0 0 0 0 0 0 0 0 0 0
0 0 0 0 0 0 0 0 0 0 6 6 6 3 0 0 0 0 0 0 0 0 0 0 0 0 0 0 0 0 0 0 0 0 0 0 0 0 0 0 0 0 0 0 0 0 0 0 0
0 0 0 0 0 0 0 0 0 0 3 6 6 3 0 0 0 0 0 0 0 0 0 0 0 0 0 0 0 0 0 0 0 0 0 0 0 0 0 0 0 0 0 0 0 0 0 0 0
0 0 0 0 0 0 0 0 0 0 0 3 6 0 0 0 0 0 0 0 0 0 0 0 0 0 0 0 0 0 0 0 0 0 0 0 0 0 0 0 0 0 0 0 0 0 0 0 0

GEFSSGP_con_cape1000_120.txt.gz
Probability
0 0 0 0 0 0 0 0 0 0 6 16 10 19 29 42 45 97 87 71 81 87 100 100 100 100 100 100 100 100 100 100 100 100 100 100 100 100 100 100 100 100 100 100 100 100 100 100 100
0 0 0 0 0 0 0 0 0 3 19 29 45 58 81 87 84 87 87 84 90 90 94 90 100 100 100 100 100 100 100 100 100 100 100 100 100 100 100 100 100 100 100 100 100 100 100 100 100
0 0 0 0 0 0 0 3 3 16 26 39 61 77 81 87 81 87 90 90 90 90 87 100 100 100 100 100 100 100 100 100 100 100 100 100 100 100 100 100 100 100 100 100 100 100 100 100 100
0 0 0 0 0 0 0 3 3 26 35 58 68 77 84 77 84 84 94 94 87 87 90 97 100 100 100 100 100 100 100 100 100 100 100 100 100 100 100 100 100 100 100 100 100 100 100 100 100
0 0 0 0 0 3 3 3 3 23 48 68 68 84 87 81 87 84 90 87 84 84 87 97 100 100 100 100 100 100 100 100 100 100 100 100 100 100 100 100 100 100 100 100 100 100 100 100 100
0 0 0 0 0 3 3 6 13 26 52 68 77 84 94 87 87 90 90 87 84 84 84 97 100 100 100 100 100 100 100 100 100 100 100 100 100 100 100 100 100 100 100 100 100 100 100 100 100
0 0 0 0 3 3 3 16 23 23 39 52 61 81 94 90 84 90 84 84 87 87 87 90 97 100 100 100 100 100 100 97 100 100 100 100 100 100 100 100 100 100 100 100 100 100 100 100 97
0 0 0 0 3 3 0 10 19 19 39 55 65 81 94 90 81 87 84 87 90 87 87 94 87 87 97 97 97 97 97 97 97 97 100 100 100 100 100 100 100 100 100 100 100 97 100 97 97
0 0 0 0 0 0 10 16 29 35 55 61 65 77 87 81 87 84 84 84 87 84 84 87 90 87 84 87 94 97 94 90 94 94 94 100 94 90 97 100 100 100 100 100 97 94 90 94 94
0 0 0 0 0 3 6 23 35 45 58 71 71 74 74 77 81 77 74 68 68 68 71 77 81 81 81 81 90 94 87 90 94 90 87 94 97 94 87 97 100 97 97 97 97 97 87 84 74
0 0 0 0 0 6 19 42 48 52 61 68 71 77 71 68 74 74 65 61 65 65 65 68 71 68 71 81 87 87 90 90 84 87 94 94 94 90 77 84 94 94 94 94 94 97 84 65 52
0 0 0 0 3 16 32 55 58 61 68 68 74 74 74 71 71 71 65 58 65 65 61 61 68 68 68 71 81 84 87 90 94 90 87 94 94 90 87 90 84 90 87 90 94 87 74 71 55
0 0 0 0 10 26 45 58 68 55 52 65 65 71 68 71 61 58 55 58 52 61 58 61 61 65 65 71 77 77 77 81 87 87 97 97 90 97 90 90 90 84 81 84 90 84 77 71 55
0 0 0 10 23 42 55 48 45 48 58 52 58 55 58 55 55 52 52 52 55 55 52 52 65 65 68 68 71 74 71 77 77 77 77 87 90 94 90 87 87 81 81 84 84 84 84 71 74
0 6 6 19 32 42 35 32 39 52 58 58 55 55 52 45 52 48 48 52 48 52 55 52 55 55 65 68 65 61 68 74 71 74 74 71 77 90 87 84 84 84 81 87 84 74 87 74 71
0 0 0 16 32 29 29 23 45 58 61 65 55 52 52 45 39 39 42 42 45 45 48 45 29 39 52 58 61 61 61 68 68 65 65 65 65 74 84 81 81 84 81 77 77 74 74 81 74
3 0 0 6 19 13 13 29 48 52 61 65 52 42 48 45 39 35 26 35 32 39 35 35 29 29 39 55 58 55 55 55 48 55 65 58 61 61 71 81 77 84 77 71 68 68 68 68 68
0 0 0 0 3 6 3 29 55 55 61 61 52 52 48 42 39 32 29 29 35 26 29 23 23 23 29 45 55 52 48 52 48 45 48 58 58 48 52 52 58 58 61 71 71 68 74 71 71
0 0 0 0 10 6 10 32 48 61 52 55 52 52 55 45 35 29 35 32 26 23 19 19 19 23 29 35 39 48 48 42 32 39 39 39 42 45 42 35 42 45 52 42 52 61 61 58 58
0 0 0 3 13 13 23 32 32 55 65 61 61 58 65 42 32 35 32 29 23 23 19 13 13 16 19 29 29 42 32 29 29 32 35 32 35 39 26 39 39 35 39 45 42 45 45 42 48
0 0 0 10 10 10 23 23 42 45 52 61 65 61 55 45 42 35 32 26 19 16 13 6 13 6 10 16 29 26 35 32 35 29 26 19 23 23 29 32 35 35 32 32 39 35 32 39 32
0 0 0 3 3 3 3 3 35 48 65 68 68 68 45 32 32 32 23 23 16 13 13 13 13 13 13 23 16 23 32 26 23 19 16 10 13 16 16 16 23 26 16 19 19 23 32 23 29
0 0 0 3 3 6 3 0 10 52 48 68 68 61 52 39 39 29 29 16 16 16 10 13 13 13 13 16 19 10 13 13 16 10 6 6 6 3 3 6 6 10 13 13 13 19 23 23 23
3 3 3 3 3 3 6 3 6 39 42 45 55 58 52 42 35 29 19 16 10 13 10 10 10 10 10 13 13 10 10 10 6 6 3 3 3 3 3 3 3 3 6 10 6 10 16 19 26
3 3 0 0 0 0 6 0 10 19 26 29 39 52 45 42 32 29 19 10 6 6 6 6 6 6 6 6 6 3 6 6 6 0 3 0 0 0 0 3 3 3 6 10 10 10 3 16 16
0 0 0 0 0 0 6 0 16 10 16 26 32 42 35 39 29 23 19 10 6 6 6 6 6 6 6 6 6 3 3 3 3 0 3 0 0 0 0 0 0 0 0 0 3 6 6 3 10
0 0 0 0 0 0 0 3 19 16 19 23 29 26 35 32 26 26 19 13 6 6 6 6 6 6 6 6 3 3 0 0 0 0 0 0 0 0 0 0 0 0 0 0 0 0 0 0 3
0 0 0 0 0 0 0 0 3 26 29 29 23 29 32 32 26 23 16 10 6 6 3 3 6 3 3 0 0 0 0 0 0 0 0 0 0 0 0 0 0 0 0 0 0 0 0 0 0
0 0 0 0 0 0 0 0 3 29 32 35 29 26 19 23 19 16 10 6 3 0 0 0 3 3 0 0 0 0 0 0 0 0 0 0 0 0 0 0 0 0 0 0 0 0 0 0 0
0 0 0 0 0 0 0 3 0 13 10 16 23 13 16 16 10 3 3 3 3 0 0 0 0 0 0 0 0 0 0 0 0 0 0 0 0 0 0 0 0 0 0 0 0 0 0 0 0

GEFSSGP_con_cape1000_126.txt.gz
Probability
0 0 0 0 0 0 0 0 0 3 0 3 16 42 74 87 74 84 81 87 94 97 100 100 100 100 100 100 100 100 100 100 100 100 100 100 100 100 100 100 100 100 100 100 100 100 100 100 100
0 0 0 0 0 0 0 0 0 3 0 10 19 48 74 77 77 77 81 90 94 97 97 100 100 100 100 100 100 100 100 100 100 100 100 100 100 100 100 100 100 100 100 100 100 100 97 97 100
0 0 0 0 0 0 0 0 6 10 6 13 39 61 77 81 81 87 84 81 81 90 97 100 100 100 100 100 100 100 100 100 100 100 100 100 100 100 100 100 100 100 100 100 100 100 100 100 100
0 0 0 0 0 0 3 3 6 3 10 23 48 74 77 90 90 90 87 81 84 90 97 100 100 100 100 100 100 100 100 100 100 100 100 100 100 100 100 100 100 100 100 100 97 97 97 100 100
0 0 0 0 0 0 3 6 6 6 10 26 65 81 84 90 87 87 84 84 84 90 90 100 100 100 100 100 100 100 100 100 100 100 100 100 100 100 100 100 100 100 100 97 100 97 100 100 97
0 0 0 0 0 0 3 3 10 10 10 45 71 81 90 87 94 90 87 84 87 90 90 97 97 100 100 100 100 100 100 100 100 100 100 100 100 100 100 100 100 100 97 97 94 94 100 94 87
0 0 0 0 0 0 3 0 13 6 10 26 65 87 90 97 97 94 84 81 84 84 90 94 94 94 94 97 97 97 97 97 100 100 100 100 100 100 100 100 100 100 100 100 97 97 97 100 90
0 0 0 0 0 0 3 6 10 23 26 42 74 84 97 97 97 90 87 84 77 87 84 87 94 90 94 90 90 97 97 97 97 97 100 100 100 100 100 100 100 97 94 94 94 94 97 94 97
0 0 0 0 0 0 0 13 23 35 48 65 87 87 94 94 90 90 87 81 81 77 77 81 87 90 87 90 90 97 97 97 94 94 90 97 94 87 97 90 100 94 94 94 97 97 97 97 94
0 0 0 0 0 0 3 6 13 32 42 81 87 90 90 97 97 94 87 87 81 81 81 81 77 74 74 74 90 94 94 94 94 94 90 87 97 94 90 94 97 97 97 97 94 97 97 90 77
0 0 0 0 0 0 6 10 3 26 45 74 87 87 94 97 97 94 90 84 77 77 77 77 74 77 74 81 84 90 87 90 87 90 84 84 81 87 90 87 94 94 90 90 90 94 90 77 71
0 0 0 0 0 0 3 10 29 55 61 65 84 94 94 94 90 87 87 81 74 71 68 68 65 68 68 74 74 81 81 77 81 84 77 77 84 81 90 90 94 90 90 90 90 90 81 74 81
0 0 0 0 0 3 16 19 39 52 61 71 81 81 81 84 77 71 84 74 74 65 61 61 65 68 68 74 74 71 74 71 71 77 77 81 81 84 87 90 94 94 94 90 87 87 84 81 74
0 0 0 0 3 3 16 32 42 58 65 65 74 77 74 74 71 71 81 71 68 61 61 65 61 65 74 68 68 71 71 77 71 74 74 74 77 77 81 81 90 94 94 90 87 87 84 81 84
0 0 0 0 0 3 13 23 42 48 58 74 68 74 74 68 68 68 61 68 65 68 65 61 61 61 55 58 58 65 65 68 68 74 68 65 71 74 77 77 81 87 84 81 90 90 77 81 77
0 0 0 0 0 3 6 13 29 45 48 61 68 65 58 65 61 58 61 61 61 58 58 55 55 52 52 55 55 52 55 65 61 55 65 61 65 61 74 65 68 81 84 84 77 74 81 74 68
0 0 0 0 0 0 3 16 29 39 55 65 68 58 65 68 61 58 55 55 55 55 52 48 48 52 52 52 55 52 48 48 48 45 42 42 45 55 52 55 58 58 74 77 71 74 74 61 65
0 0 0 0 0 0 0 6 26 35 42 55 58 61 61 65 55 52 52 48 48 48 48 39 42 48 58 45 52 52 48 45 39 35 39 39 42 42 52 61 61 55 61 65 71 65 68 65 61
0 0 0 0 0 0 0 3 19 42 32 39 52 65 61 61 55 52 42 42 42 42 42 42 39 52 45 45 42 48 45 32 35 32 39 32 29 32 39 35 58 52 52 48 48 45 52 55 58
0 0 0 0 0 0 0 3 16 23 45 52 52 52 65 58 55 52 52 45 35 32 32 42 42 39 39 39 45 48 42 42 32 29 26 23 23 26 19 42 35 42 45 42 42 48 42 42 48
0 0 0 0 0 0 3 6 10 23 32 48 55 65 68 65 58 48 48 45 32 29 29 26 29 32 32 42 35 29 32 35 32 23 23 19 19 19 23 23 29 29 32 32 39 39 35 32 32
0 0 0 0 0 0 0 0 6 19 26 32 42 55 71 65 55 48 45 45 29 23 16 19 26 23 23 35 35 29 26 16 16 16 16 13 13 16 19 19 19 23 26 32 26 23 29 19 23
0 0 0 0 0 0 0 0 0 16 26 32 39 45 61 58 52 52 42 35 23 13 16 19 23 26 23 26 32 26 16 6 6 6 6 6 10 3 3 10 16 23 23 23 16 16 23 19 23
0 0 0 0 0 0 0 0 0 6 16 29 42 58 52 48 45 39 35 26 19 19 19 23 26 26 23 19 23 16 10 6 6 6 6 3 10 6 10 10 10 10 10 13 10 16 13 16 16
0 0 0 0 0 0 0 0 3 3 6 16 35 42 55 48 45 39 29 26 16 16 19 19 16 16 16 13 13 10 10 10 3 3 3 3 6 6 6 6 10 10 10 6 6 10 10 16 13
0 0 0 0 0 0 0 0 6 6 10 23 32 32 39 52 35 35 26 26 19 16 10 10 10 10 10 10 13 10 10 10 3 3 3 3 6 6 6 6 0 0 0 0 6 10 6 3 3
0 0 0 0 0 0 0 0 3 13 23 23 23 39 42 42 35 35 26 26 16 13 13 10 10 10 10 10 13 13 10 6 6 3 3 3 3 0 0 0 0 0 0 0 0 0 0 0 0
0 0 0 0 0 0 0 0 3 13 23 29 32 32 32 35 35 29 23 16 10 10 13 6 10 10 10 10 10 6 3 3 6 0 0 0 0 0 0 0 0 0 0 0 0 0 0 0 0
0 0 0 0 0 0 0 0 0 13 19 42 39 32 29 29 29 23 23 16 13 10 6 3 3 3 6 10 10 6 0 0 0 0 0 0 0 0 0 0 0 0 0 0 0 0 0 0 0
0 0 0 0 0 0 0 3 10 19 19 29 29 23 16 23 26 13 19 13 3 3 0 3 3 3 3 3 13 10 0 0 3 0 0 0 0 0 0 0 0 0 0 0 0 0 0 0 0

GEFSSGP_con_cape1000_132.txt.gz
Probability
0 0 0 0 0 0 0 0 0 3 26 32 32 32 32 35 29 39 55 77 84 97 100 100 100 100 100 100 100 100 100 100 100 100 100 100 100 100 100 100 100 100 100 100 100 100 100 100 100
0 0 0 0 0 0 0 0 6 16 32 42 58 48 55 68 81 77 77 77 94 100 100 100 100 100 100 100 100 100 100 100 100 100 100 100 100 100 100 100 100 100 100 100 100 100 100 100 100
0 0 0 0 0 0 0 0 3 29 42 52 61 65 74 68 90 90 84 87 90 97 97 100 100 100 100 100 100 100 100 100 100 100 100 100 100 100 100 100 100 100 100 100 100 100 100 100 100
0 0 0 0 0 0 0 0 3 29 45 55 68 71 74 74 84 87 77 84 87 97 97 100 100 100 100 100 100 100 100 100 100 100 100 100 100 100 100 100 100 100 100 100 100 100 100 100 100
0 0 0 0 0 0 0 0 3 29 48 68 65 65 68 74 81 87 84 81 94 94 94 100 100 100 100 100 100 100 100 100 100 100 100 100 100 100 100 100 100 100 100 100 97 100 100 100 100
0 0 0 0 0 0 0 10 19 45 45 52 58 65 68 77 84 81 84 87 90 94 94 97 100 100 100 100 100 100 100 100 100 100 100 100 100 100 100 100 100 100 100 97 100 100 100 97 94
0 0 0 0 0 0 6 10 19 42 45 52 58 61 71 74 68 77 87 87 90 94 90 90 90 90 100 100 100 100 100 100 100 100 100 100 100 100 100 100 100 100 100 100 90 94 97 90 87
0 0 0 0 0 0 6 6 10 35 42 48 55 65 65 74 74 74 74 77 84 84 90 90 90 90 90 94 100 100 97 97 100 100 100 100 100 100 100 100 100 100 100 94 94 94 90 90 94
0 0 0 0 0 0 6 16 35 39 42 48 55 61 71 81 71 71 74 74 74 74 74 84 87 90 87 87 94 97 94 94 97 97 100 100 84 87 94 100 100 100 97 94 94 97 94 94 94
0 0 0 0 0 0 6 29 39 48 52 65 74 77 71 77 68 74 74 65 68 68 68 74 74 77 84 87 81 81 87 81 77 74 74 74 68 68 81 94 100 100 97 94 94 90 87 87 65
0 0 0 0 3 3 16 26 42 45 55 71 74 71 74 71 65 65 61 55 55 58 58 58 68 65 61 65 65 61 68 68 68 68 68 65 58 58 65 71 81 84 90 77 84 81 81 68 52
0 0 0 0 13 10 19 35 48 65 55 61 77 74 68 65 65 61 58 45 48 48 45 45 42 55 48 48 48 42 48 55 45 48 45 42 42 39 52 58 61 65 58 58 61 55 52 42 32
0 0 3 3 16 16 19 52 52 65 55 65 65 68 68 61 52 52 52 42 45 45 48 35 35 35 29 32 35 42 42 42 42 42 42 39 35 32 32 35 35 42 39 39 42 35 39 32 32
0 0 0 3 16 19 26 29 42 52 52 55 65 61 58 48 45 39 39 42 39 32 29 26 29 26 26 26 23 26 26 35 32 26 32 32 26 26 29 29 26 26 32 32 35 35 35 26 32
0 0 0 0 6 16 16 19 35 42 45 58 58 55 42 45 35 35 32 29 29 29 29 26 26 26 26 23 23 23 26 26 26 23 19 23 19 23 19 19 13 16 23 23 23 16 13 13 16
0 0 0 0 3 3 3 16 23 39 39 45 55 45 39 32 35 39 29 29 23 16 19 23 26 23 19 23 23 23 23 23 19 16 16 23 19 19 10 16 16 13 10 10 6 10 3 3 3
0 0 0 0 0 3 0 10 16 23 32 42 48 42 32 39 32 32 32 23 19 23 16 16 16 16 13 19 19 23 23 23 23 19 19 16 19 10 13 13 10 6 6 3 6 0 0 0 0
0 0 0 0 0 3 3 6 16 19 23 29 32 35 39 39 23 26 32 26 19 19 19 19 13 19 16 16 19 23 23 23 19 10 13 13 10 10 13 6 6 3 3 3 3 3 0 0 0
0 0 0 0 0 0 0 6 13 13 19 19 29 39 32 32 29 23 19 23 19 19 16 16 13 13 13 13 16 13 13 6 0 6 13 6 13 10 10 6 6 3 3 3 3 3 0 0 0
0 0 0 0 0 0 0 3 6 10 19 19 23 32 29 23 13 16 6 13 16 16 13 13 10 10 6 13 16 10 3 0 0 0 0 0 3 6 10 3 3 3 3 3 3 0 0 0 0
0 0 0 0 0 0 0 0 0 3 6 13 16 19 19 23 13 6 10 13 13 16 13 13 10 10 10 6 16 10 0 0 0 0 0 0 0 0 0 3 3 0 3 0 0 0 0 0 0
0 0 0 0 0 0 0 0 0 0 3 6 3 13 13 13 13 6 10 10 16 16 16 13 10 10 10 6 3 6 0 0 0 0 0 0 0 0 0 0 0 0 0 0 0 0 0 0 0
0 0 0 0 0 0 0 0 0 0 0 0 10 6 13 10 10 10 10 16 16 13 10 10 10 3 3 0 0 0 0 0 0 0 0 0 0 0 0 0 0 0 3 0 0 0 0 0 0
0 0 0 0 0 0 0 0 0 0 0 0 3 6 6 6 16 13 10 16 10 10 6 6 6 3 0 0 0 0 0 0 0 0 0 0 0 0 0 0 0 0 0 0 0 0 0 0 0
0 0 0 0 0 0 0 0 0 0 0 3 0 6 3 3 13 16 10 10 10 6 6 6 3 0 0 0 0 0 0 0 0 0 0 0 0 0 0 0 0 0 0 0 0 0 0 0 0
0 0 0 0 0 0 0 0 0 0 0 0 3 3 3 3 10 6 3 0 0 3 6 3 0 0 0 0 0 0 0 0 0 0 0 0 0 0 0 0 0 0 0 0 0 0 0 0 0
0 0 0 0 0 0 0 0 0 3 3 3 3 3 6 6 0 6 3 3 0 0 0 0 0 0 0 0 0 0 0 0 0 0 0 0 0 0 0 0 0 0 0 0 0 0 0 0 0
0 0 0 0 0 0 0 0 0 0 0 3 3 3 0 0 0 3 3 3 0 0 0 0 0 0 0 0 0 0 0 0 0 0 0 0 0 0 0 0 0 0 0 0 0 0 0 0 0
0 0 0 0 0 0 0 0 0 0 0 0 0 0 0 0 3 3 3 3 3 0 0 0 0 0 0 0 0 0 0 0 0 0 0 0 0 0 0 0 0 0 0 0 0 0 0 0 0
0 0 0 0 0 0 0 0 0 0 0 0 3 0 3 3 3 3 3 0 0 0 0 0 0 0 0 0 0 0 0 0 0 0 0 0 0 0 0 0 0 0 0 0 0 0 0 0 0

GEFSSGP_con_cape1000_138.txt.gz
Probability
0 0 0 0 0 0 0 0 0 0 13 10 13 13 16 23 10 3 19 35 74 87 87 94 100 100 100 100 100 100 100 100 100 100 100 100 100 100 100 100 100 100 100 100 100 100 100 100 100
0 0 0 0 0 0 0 0 0 6 29 32 35 58 71 71 68 58 61 77 87 87 84 84 100 100 100 97 100 100 100 100 100 100 100 100 100 100 100 100 100 100 100 100 100 97 97 100 100
0 0 0 0 0 0 0 0 16 26 42 45 55 65 74 81 84 71 77 84 94 84 81 97 100 100 100 100 100 100 100 100 100 100 100 100 100 100 100 100 100 100 100 100 100 94 97 100 100
0 0 0 0 0 0 0 3 16 29 52 55 68 77 65 84 94 81 87 90 84 84 77 90 100 100 100 100 100 100 100 100 100 100 100 100 100 100 100 100 100 100 100 97 100 97 97 97 100
0 0 0 0 0 0 0 0 6 26 45 61 65 65 74 84 84 81 84 87 84 81 81 90 100 100 100 100 100 100 100 100 100 100 100 100 100 100 100 100 100 100 100 100 100 100 100 100 100
0 0 0 0 0 0 0 3 16 29 48 52 68 71 77 84 87 87 87 81 81 81 81 87 94 94 97 100 100 100 100 100 100 100 100 100 100 100 100 100 100 100 100 100 100 100 100 100 100
0 0 0 0 0 3 3 6 13 35 29 55 58 74 81 81 81 81 81 84 84 81 81 84 90 90 90 97 100 100 100 100 100 97 100 100 100 100 100 100 100 100 100 100 100 97 97 94 90
0 0 0 0 0 3 3 6 16 32 35 48 61 81 81 87 77 77 84 84 77 81 84 84 87 90 90 90 94 97 100 100 100 97 97 97 97 97 100 100 100 100 97 97 97 97 87 87 87
0 0 0 0 0 3 3 13 29 29 39 48 55 65 84 81 81 77 71 77 71 77 71 77 81 87 90 90 90 90 90 97 100 97 97 94 84 87 97 100 100 97 97 94 94 90 90 94 94
0 0 0 0 0 3 3 16 29 23 32 58 68 77 81 77 68 68 58 68 71 65 68 68 71 77 77 81 81 81 84 84 84 77 81 71 68 68 84 97 97 94 94 94 94 94 84 87 74
0 0 0 0 3 3 3 16 29 32 35 55 58 74 71 71 71 61 58 61 58 61 61 61 61 68 68 68 71 65 61 68 65 61 65 61 52 55 61 65 71 74 81 84 81 77 81 74 61
0 0 3 3 3 3 6 23 39 45 48 55 65 74 71 68 71 68 58 61 58 48 52 55 52 52 52 58 58 52 48 52 52 48 48 48 39 35 39 42 52 52 55 58 61 58 61 55 52
0 3 3 3 3 19 35 35 42 58 61 65 65 68 68 68 68 58 45 39 42 42 42 42 42 35 42 35 35 35 39 48 45 45 45 42 35 29 29 29 29 39 39 39 39 32 29 29 35
0 3 0 6 10 13 26 23 29 52 58 68 71 65 61 58 58 39 42 35 45 45 39 39 29 29 29 23 23 23 19 19 19 29 32 32 32 29 23 23 26 26 26 29 29 29 29 26 26
0 0 0 0 6 6 10 19 26 39 55 65 61 58 58 48 42 39 26 26 26 23 32 32 23 23 19 19 19 23 23 19 19 13 10 13 13 19 13 13 19 19 23 19 19 16 16 16 13
0 0 0 0 3 3 3 10 32 32 48 58 55 48 45 35 29 32 19 16 16 19 19 19 23 23 19 19 19 19 16 19 19 10 10 10 13 13 10 6 3 6 3 0 0 3 6 3 6
0 0 0 0 0 0 0 6 29 35 45 48 48 45 35 29 19 23 16 13 6 10 16 13 16 19 16 19 16 16 16 13 13 6 6 3 13 6 3 6 3 0 3 0 0 0 0 0 0
0 0 0 0 0 0 0 0 23 29 23 32 39 39 32 29 23 19 13 6 3 3 6 10 10 10 10 10 10 10 10 6 3 3 3 3 6 10 3 6 6 0 0 3 0 0 0 0 0
0 0 0 0 0 0 0 0 19 19 23 29 29 32 26 29 23 19 10 6 3 6 6 10 10 10 10 10 10 10 13 0 0 0 0 0 0 3 6 3 3 3 3 3 0 0 0 0 0
0 0 0 0 0 0 0 0 13 19 19 23 26 29 26 23 23 19 6 6 6 6 6 6 6 6 10 10 3 0 0 0 0 0 0 0 0 0 0 0 0 0 0 0 0 0 0 0 0
0 0 0 0 0 0 0 0 3 13 16 19 19 23 23 19 23 19 13 0 0 3 3 10 3 3 3 3 3 0 0 0 0 0 0 0 0 0 0 0 0 0 0 0 0 0 0 0 0
0 0 0 0 0 0 0 0 0 0 10 13 13 13 16 13 13 6 3 3 3 0 0 0 0 3 0 0 3 0 0 0 0 0 0 0 0 0 0 0 0 0 0 0 0 0 0 0 0
0 0 0 0 0 0 0 0 0 0 6 3 3 6 13 6 0 6 6 3 0 0 0 0 0 0 0 0 0 0 0 0 0 0 0 0 0 0 0 0 0 0 0 0 0 0 0 0 0
0 0 0 0 0 0 0 0 0 0 3 3 3 6 6 3 0 0 0 0 0 0 0 0 0 0 0 0 0 0 0 0 0 0 0 0 0 0 0 0 0 0 0 0 0 0 0 0 0
0 0 0 0 0 0 0 0 0 0 0 0 3 3 3 3 0 0 0 0 0 0 0 0 0 0 0 0 0 0 0 0 0 0 0 0 0 0 0 0 0 0 0 0 0 0 0 0 0
0 0 0 0 0 0 0 0 0 0 0 0 0 6 3 3 0 0 3 0 0 0 0 0 0 0 0 0 0 0 0 0 0 0 0 0 0 0 0 0 0 0 0 0 0 0 0 0 0
0 0 0 0 0 0 0 0 0 0 3 3 3 6 3 0 0 0 0 0 0 0 0 0 0 0 0 0 0 0 0 0 0 0 0 0 0 0 0 0 0 0 0 0 0 0 0 0 0
0 0 0 0 0 0 0 0 0 0 0 3 3 6 6 0 0 0 0 0 0 0 0 0 0 0 0 0 0 0 0 0 0 0 0 0 0 0 0 0 0 0 0 0 0 0 0 0 0
0 0 0 0 0 0 0 0 0 0 0 3 0 3 0 0 0 0 0 0 0 0 0 0 0 0 0 0 0 0 0 0 0 0 0 0 0 0 0 0 0 0 0 0 0 0 0 0 0
0 0 0 0 0 0 0 0 0 0 0 0 0 0 0 0 0 0 0 0 0 0 0 0 0 0 0 0 0 0 0 0 0 0 0 0 0 0 0 0 0 0 0 0 0 0 0 0 0